Wetterdaten: Donnerstag, 30.06.2016
Datum Zeit Temp. Aussen Temp. o. S. +5cm Feuchte Auss BlattFeu 1 Luftdruck Regen Sonnenschein Regendauer Solar Windben Empfang
30.06.2016 00:00 17,2 C 16,1 C 14,4 C 80 % 0 lf 1010,3 hPa 0,0 l/m 0 min 2 min 0 W/m 6,3 km/h (2 Bft) 93,48 %
30.06.2016 00:02 17,2 C 16,1 C 14,4 C 80 % 0 lf 1010,4 hPa 0,0 l/m 0 min 2 min 0 W/m 6,3 km/h (2 Bft) 92,86 %
30.06.2016 00:06 17,2 C 16,1 C 14,4 C 80 % 0 lf 1010,4 hPa 0,0 l/m 0 min 2 min 0 W/m 8,4 km/h (2 Bft) 93,68 %
30.06.2016 00:08 17,2 C 16,1 C 14,4 C 80 % 0 lf 1010,4 hPa 0,0 l/m 0 min 2 min 0 W/m 8,4 km/h (2 Bft) 95,74 %
30.06.2016 00:10 17,1 C 16,1 C 13,9 C 81 % 0 lf 1010,4 hPa 0,0 l/m 0 min 2 min 0 W/m 8,4 km/h (2 Bft) 89,36 %
30.06.2016 00:12 17,1 C 15,6 C 13,9 C 81 % 0 lf 1010,5 hPa 0,0 l/m 0 min 2 min 0 W/m 8,4 km/h (2 Bft) 93,48 %
30.06.2016 00:14 17,1 C 15,6 C 13,9 C 81 % 3 lf 1010,5 hPa 0,0 l/m 0 min 2 min 0 W/m 8,4 km/h (2 Bft) 93,62 %
30.06.2016 00:16 17,1 C 15,6 C 13,9 C 81 % 4 lf 1010,5 hPa 0,0 l/m 0 min 2 min 0 W/m 10,5 km/h (2 Bft) 93,62 %
30.06.2016 00:18 17,1 C 15,6 C 13,9 C 82 % 8 lf 1010,5 hPa 0,0 l/m 0 min 2 min 0 W/m 6,3 km/h (2 Bft) 93,62 %
30.06.2016 00:20 17,0 C 15,0 C 13,9 C 82 % 5 lf 1010,5 hPa 0,0 l/m 0 min 2 min 0 W/m 10,5 km/h (2 Bft) 89,36 %
30.06.2016 00:22 17,0 C 15,6 C 13,9 C 82 % 4 lf 1010,5 hPa 0,0 l/m 0 min 2 min 0 W/m 10,5 km/h (2 Bft) 93,48 %
30.06.2016 00:24 17,0 C 15,6 C 13,9 C 82 % 6 lf 1010,5 hPa 0,0 l/m 0 min 2 min 0 W/m 10,5 km/h (2 Bft) 95,74 %
30.06.2016 00:26 17,0 C 15,0 C 13,9 C 82 % 5 lf 1010,6 hPa 0,0 l/m 0 min 2 min 0 W/m 10,5 km/h (2 Bft) 95,74 %
30.06.2016 00:28 16,9 C 15,0 C 13,9 C 82 % 4 lf 1010,5 hPa 0,0 l/m 0 min 2 min 0 W/m 10,5 km/h (2 Bft) 91,49 %
30.06.2016 00:30 16,9 C 15,0 C 13,9 C 82 % 4 lf 1010,5 hPa 0,0 l/m 0 min 2 min 0 W/m 8,4 km/h (2 Bft) 95,74 %
30.06.2016 00:32 16,9 C 15,0 C 13,9 C 83 % 3 lf 1010,5 hPa 0,0 l/m 0 min 2 min 0 W/m 10,5 km/h (2 Bft) 95,74 %
30.06.2016 00:34 16,9 C 15,6 C 13,9 C 83 % 2 lf 1010,5 hPa 0,0 l/m 0 min 2 min 0 W/m 10,5 km/h (2 Bft) 91,49 %
30.06.2016 00:36 16,9 C 15,6 C 13,9 C 83 % 1 lf 1010,5 hPa 0,0 l/m 0 min 2 min 0 W/m 10,5 km/h (2 Bft) 94,29 %
30.06.2016 00:38 16,8 C 15,6 C 13,9 C 83 % 4 lf 1010,5 hPa 0,0 l/m 0 min 2 min 0 W/m 12,6 km/h (3 Bft) 93,62 %
30.06.2016 00:40 16,8 C 15,0 C 13,9 C 83 % 4 lf 1010,5 hPa 0,2 l/m 0 min 2 min 0 W/m 12,6 km/h (3 Bft) 89,36 %
30.06.2016 00:42 16,8 C 15,0 C 13,3 C 83 % 3 lf 1010,5 hPa 0,0 l/m 0 min 2 min 0 W/m 16,7 km/h (3 Bft) 95,74 %
30.06.2016 00:44 16,8 C 15,0 C 13,3 C 83 % 2 lf 1010,5 hPa 0,0 l/m 0 min 2 min 0 W/m 20,9 km/h (4 Bft) 95,74 %
30.06.2016 00:46 16,8 C 15,6 C 13,3 C 83 % 1 lf 1010,4 hPa 0,0 l/m 0 min 2 min 0 W/m 18,8 km/h (3 Bft) 95,74 %
30.06.2016 00:48 16,8 C 15,6 C 13,9 C 83 % 0 lf 1010,4 hPa 0,0 l/m 0 min 2 min 0 W/m 23,0 km/h (4 Bft) 93,48 %
30.06.2016 00:50 16,8 C 15,6 C 13,9 C 83 % 0 lf 1010,4 hPa 0,0 l/m 0 min 2 min 0 W/m 20,9 km/h (4 Bft) 95,74 %
30.06.2016 00:52 16,8 C 15,6 C 13,9 C 83 % 0 lf 1010,4 hPa 0,0 l/m 0 min 2 min 0 W/m 16,7 km/h (3 Bft) 93,62 %
30.06.2016 00:54 16,8 C 16,1 C 13,9 C 83 % 0 lf 1010,4 hPa 0,0 l/m 0 min 0 min 0 W/m 16,7 km/h (3 Bft) 97,87 %
30.06.2016 00:56 16,8 C 16,1 C 13,9 C 83 % 0 lf 1010,3 hPa 0,0 l/m 0 min 0 min 0 W/m 27,2 km/h (4 Bft) 95,74 %
30.06.2016 00:58 16,8 C 16,1 C 13,9 C 83 % 0 lf 1010,3 hPa 0,0 l/m 0 min 0 min 0 W/m 18,8 km/h (3 Bft) 97,83 %
30.06.2016 01:00 16,8 C 16,1 C 13,9 C 83 % 0 lf 1010,3 hPa 0,0 l/m 0 min 0 min 0 W/m 18,8 km/h (3 Bft) 97,87 %
30.06.2016 01:02 16,8 C 16,1 C 14,4 C 83 % 0 lf 1010,3 hPa 0,0 l/m 0 min 0 min 0 W/m 16,7 km/h (3 Bft) 97,87 %
30.06.2016 01:04 16,8 C 16,7 C 14,4 C 83 % 0 lf 1010,2 hPa 0,0 l/m 0 min 0 min 0 W/m 16,7 km/h (3 Bft) 100,00 %
30.06.2016 01:06 16,8 C 16,7 C 14,4 C 83 % 0 lf 1010,3 hPa 0,0 l/m 0 min 0 min 0 W/m 18,8 km/h (3 Bft) 100,00 %
30.06.2016 01:08 16,8 C 16,7 C 14,4 C 83 % 0 lf 1010,3 hPa 0,0 l/m 0 min 0 min 0 W/m 20,9 km/h (4 Bft) 100,00 %
30.06.2016 01:10 16,9 C 16,7 C 14,4 C 83 % 0 lf 1010,2 hPa 0,0 l/m 0 min 0 min 0 W/m 16,7 km/h (3 Bft) 100,00 %
30.06.2016 01:12 16,9 C 16,7 C 14,4 C 83 % 0 lf 1010,2 hPa 0,0 l/m 0 min 0 min 0 W/m 12,6 km/h (3 Bft) 100,00 %
30.06.2016 01:14 16,9 C 16,7 C 14,4 C 84 % 0 lf 1010,2 hPa 0,0 l/m 0 min 0 min 0 W/m 12,6 km/h (3 Bft) 100,00 %
30.06.2016 01:16 16,9 C 16,7 C 15,0 C 84 % 0 lf 1010,2 hPa 0,0 l/m 0 min 0 min 0 W/m 10,5 km/h (2 Bft) 100,00 %
30.06.2016 01:18 16,9 C 16,7 C 15,0 C 84 % 0 lf 1010,1 hPa 0,0 l/m 0 min 0 min 0 W/m 12,6 km/h (3 Bft) 93,62 %
30.06.2016 01:20 16,9 C 16,7 C 15,0 C 84 % 0 lf 1010,2 hPa 0,0 l/m 0 min 0 min 0 W/m 12,6 km/h (3 Bft) 100,00 %
30.06.2016 01:22 16,9 C 16,7 C 15,0 C 84 % 0 lf 1010,1 hPa 0,0 l/m 0 min 0 min 0 W/m 14,6 km/h (3 Bft) 100,00 %
30.06.2016 01:24 16,9 C 16,7 C 15,0 C 84 % 0 lf 1010,1 hPa 0,0 l/m 0 min 0 min 0 W/m 14,6 km/h (3 Bft) 100,00 %
30.06.2016 01:26 16,9 C 16,7 C 15,0 C 84 % 0 lf 1010,1 hPa 0,0 l/m 0 min 0 min 0 W/m 10,5 km/h (2 Bft) 93,62 %
30.06.2016 01:28 16,9 C 16,7 C 15,0 C 84 % 0 lf 1010,1 hPa 0,0 l/m 0 min 0 min 0 W/m 18,8 km/h (3 Bft) 97,87 %
30.06.2016 01:30 16,9 C 16,7 C 15,0 C 84 % 0 lf 1010,1 hPa 0,0 l/m 0 min 0 min 0 W/m 23,0 km/h (4 Bft) 95,74 %
30.06.2016 01:32 16,8 C 16,7 C 15,0 C 84 % 0 lf 1010,1 hPa 0,0 l/m 0 min 0 min 0 W/m 8,4 km/h (2 Bft) 97,87 %
30.06.2016 01:34 16,9 C 16,7 C 15,0 C 84 % 0 lf 1010,1 hPa 0,0 l/m 0 min 0 min 0 W/m 14,6 km/h (3 Bft) 95,65 %
30.06.2016 01:36 16,9 C 16,7 C 15,0 C 84 % 0 lf 1010,0 hPa 0,0 l/m 0 min 0 min 0 W/m 12,6 km/h (3 Bft) 96,36 %
30.06.2016 01:38 16,9 C 16,7 C 15,0 C 84 % 0 lf 1010,0 hPa 0,0 l/m 0 min 0 min 0 W/m 16,7 km/h (3 Bft) 95,74 %
30.06.2016 01:40 16,9 C 16,7 C 15,0 C 84 % 0 lf 1010,0 hPa 0,0 l/m 0 min 0 min 0 W/m 12,6 km/h (3 Bft) 95,74 %
30.06.2016 01:42 16,8 C 16,7 C 15,0 C 84 % 0 lf 1010,0 hPa 0,0 l/m 0 min 0 min 0 W/m 14,6 km/h (3 Bft) 97,87 %
30.06.2016 01:44 16,8 C 16,7 C 15,0 C 84 % 0 lf 1010,0 hPa 0,0 l/m 0 min 0 min 0 W/m 16,7 km/h (3 Bft) 97,87 %
30.06.2016 01:46 16,8 C 16,7 C 15,0 C 84 % 0 lf 1010,0 hPa 0,0 l/m 0 min 0 min 0 W/m 14,6 km/h (3 Bft) 95,65 %
30.06.2016 01:48 16,8 C 16,7 C 15,0 C 84 % 0 lf 1010,0 hPa 0,0 l/m 0 min 0 min 0 W/m 12,6 km/h (3 Bft) 97,87 %
30.06.2016 01:50 16,8 C 16,7 C 15,0 C 84 % 0 lf 1010,0 hPa 0,0 l/m 0 min 0 min 0 W/m 12,6 km/h (3 Bft) 95,74 %
30.06.2016 01:52 16,9 C 16,7 C 15,0 C 84 % 0 lf 1010,0 hPa 0,0 l/m 0 min 0 min 0 W/m 16,7 km/h (3 Bft) 95,74 %
30.06.2016 01:54 16,8 C 16,7 C 15,6 C 84 % 0 lf 1010,0 hPa 0,0 l/m 0 min 0 min 0 W/m 12,6 km/h (3 Bft) 97,87 %
30.06.2016 01:56 16,9 C 16,7 C 15,6 C 84 % 0 lf 1010,0 hPa 0,0 l/m 0 min 0 min 0 W/m 14,6 km/h (3 Bft) 97,87 %
30.06.2016 01:58 16,8 C 17,2 C 15,6 C 84 % 0 lf 1010,0 hPa 0,0 l/m 0 min 0 min 0 W/m 18,8 km/h (3 Bft) 97,83 %
30.06.2016 02:00 16,8 C 17,2 C 15,6 C 83 % 0 lf 1010,0 hPa 0,0 l/m 0 min 0 min 0 W/m 14,6 km/h (3 Bft) 95,74 %
30.06.2016 02:02 16,9 C 17,2 C 15,6 C 83 % 0 lf 1010,0 hPa 0,0 l/m 0 min 0 min 0 W/m 12,6 km/h (3 Bft) 100,00 %
30.06.2016 02:04 16,9 C 17,2 C 15,6 C 83 % 0 lf 1010,0 hPa 0,0 l/m 0 min 0 min 0 W/m 16,7 km/h (3 Bft) 97,87 %
30.06.2016 02:06 16,9 C 17,2 C 15,6 C 83 % 0 lf 1010,0 hPa 0,0 l/m 0 min 0 min 0 W/m 14,6 km/h (3 Bft) 100,00 %
30.06.2016 02:08 16,9 C 17,2 C 15,6 C 83 % 0 lf 1010,0 hPa 0,0 l/m 0 min 0 min 0 W/m 18,8 km/h (3 Bft) 97,87 %
30.06.2016 02:10 16,9 C 17,2 C 15,6 C 83 % 0 lf 1010,0 hPa 0,0 l/m 0 min 0 min 0 W/m 14,6 km/h (3 Bft) 97,87 %
30.06.2016 02:12 16,9 C 17,2 C 15,6 C 83 % 0 lf 1010,0 hPa 0,0 l/m 0 min 0 min 0 W/m 18,8 km/h (3 Bft) 100,00 %
30.06.2016 02:14 16,9 C 17,2 C 15,6 C 83 % 0 lf 1010,0 hPa 0,0 l/m 0 min 0 min 0 W/m 18,8 km/h (3 Bft) 100,00 %
30.06.2016 02:16 16,9 C 17,2 C 15,6 C 83 % 0 lf 1010,0 hPa 0,0 l/m 0 min 0 min 0 W/m 14,6 km/h (3 Bft) 100,00 %
30.06.2016 02:18 16,9 C 17,2 C 15,6 C 83 % 0 lf 1010,0 hPa 0,0 l/m 0 min 0 min 0 W/m 18,8 km/h (3 Bft) 97,87 %
30.06.2016 02:20 17,0 C 17,2 C 15,6 C 83 % 0 lf 1010,0 hPa 0,0 l/m 0 min 0 min 0 W/m 14,6 km/h (3 Bft) 97,83 %
30.06.2016 02:22 17,0 C 17,2 C 15,6 C 83 % 0 lf 1010,0 hPa 0,0 l/m 0 min 0 min 0 W/m 12,6 km/h (3 Bft) 100,00 %
30.06.2016 02:24 17,0 C 17,2 C 15,6 C 82 % 0 lf 1010,0 hPa 0,0 l/m 0 min 0 min 0 W/m 18,8 km/h (3 Bft) 100,00 %
30.06.2016 02:26 17,0 C 17,2 C 15,6 C 82 % 0 lf 1010,0 hPa 0,0 l/m 0 min 2 min 0 W/m 18,8 km/h (3 Bft) 97,87 %
30.06.2016 02:28 17,0 C 17,2 C 15,6 C 82 % 0 lf 1010,0 hPa 0,0 l/m 0 min 0 min 0 W/m 20,9 km/h (4 Bft) 97,87 %
30.06.2016 02:30 17,0 C 17,2 C 15,6 C 82 % 0 lf 1009,9 hPa 0,0 l/m 0 min 0 min 0 W/m 14,6 km/h (3 Bft) 97,87 %
30.06.2016 02:32 17,1 C 17,2 C 15,6 C 82 % 0 lf 1009,9 hPa 0,0 l/m 0 min 0 min 0 W/m 14,6 km/h (3 Bft) 93,48 %
30.06.2016 02:34 17,1 C 17,2 C 15,6 C 82 % 0 lf 1010,0 hPa 0,0 l/m 0 min 0 min 0 W/m 14,6 km/h (3 Bft) 93,62 %
30.06.2016 02:36 17,1 C 17,2 C 15,6 C 82 % 0 lf 1010,0 hPa 0,0 l/m 0 min 0 min 0 W/m 12,6 km/h (3 Bft) 98,11 %
30.06.2016 02:38 17,1 C 17,2 C 15,6 C 82 % 0 lf 1009,9 hPa 0,0 l/m 0 min 0 min 0 W/m 20,9 km/h (4 Bft) 91,49 %
30.06.2016 02:40 17,1 C 17,2 C 15,6 C 82 % 0 lf 1010,0 hPa 0,0 l/m 0 min 0 min 0 W/m 14,6 km/h (3 Bft) 97,87 %
30.06.2016 02:42 17,1 C 17,2 C 15,6 C 82 % 0 lf 1010,0 hPa 0,0 l/m 0 min 0 min 0 W/m 14,6 km/h (3 Bft) 95,74 %
30.06.2016 02:44 17,1 C 17,2 C 15,6 C 82 % 0 lf 1010,1 hPa 0,0 l/m 0 min 0 min 0 W/m 23,0 km/h (4 Bft) 95,65 %
30.06.2016 02:46 17,0 C 17,2 C 15,6 C 82 % 0 lf 1010,0 hPa 0,0 l/m 0 min 0 min 0 W/m 14,6 km/h (3 Bft) 95,74 %
30.06.2016 02:48 17,1 C 17,2 C 15,6 C 82 % 0 lf 1010,1 hPa 0,0 l/m 0 min 0 min 0 W/m 18,8 km/h (3 Bft) 91,49 %
30.06.2016 02:50 17,1 C 17,2 C 15,6 C 82 % 0 lf 1010,0 hPa 0,0 l/m 0 min 0 min 0 W/m 12,6 km/h (3 Bft) 95,74 %
30.06.2016 02:52 17,1 C 17,2 C 15,6 C 82 % 0 lf 1010,0 hPa 0,0 l/m 0 min 0 min 0 W/m 14,6 km/h (3 Bft) 93,62 %
30.06.2016 02:54 17,0 C 17,2 C 15,6 C 82 % 0 lf 1010,1 hPa 0,0 l/m 0 min 0 min 0 W/m 12,6 km/h (3 Bft) 93,62 %
30.06.2016 02:56 17,0 C 16,7 C 15,6 C 82 % 0 lf 1010,1 hPa 0,0 l/m 0 min 0 min 0 W/m 16,7 km/h (3 Bft) 93,48 %
30.06.2016 02:58 17,0 C 16,7 C 15,6 C 82 % 0 lf 1010,2 hPa 0,0 l/m 0 min 0 min 0 W/m 16,7 km/h (3 Bft) 95,74 %
30.06.2016 03:00 17,0 C 17,2 C 15,6 C 82 % 0 lf 1010,2 hPa 0,0 l/m 0 min 0 min 0 W/m 14,6 km/h (3 Bft) 93,62 %
30.06.2016 03:02 17,0 C 17,2 C 15,6 C 82 % 0 lf 1010,1 hPa 0,0 l/m 0 min 0 min 0 W/m 14,6 km/h (3 Bft) 95,83 %
30.06.2016 03:04 17,0 C 17,2 C 15,6 C 82 % 0 lf 1010,1 hPa 0,0 l/m 0 min 0 min 0 W/m 18,8 km/h (3 Bft) 95,74 %
30.06.2016 03:06 17,0 C 17,2 C 15,6 C 82 % 0 lf 1010,1 hPa 0,0 l/m 0 min 0 min 0 W/m 18,8 km/h (3 Bft) 93,62 %
30.06.2016 03:08 17,0 C 17,2 C 15,6 C 82 % 0 lf 1010,1 hPa 0,0 l/m 0 min 0 min 0 W/m 14,6 km/h (3 Bft) 95,65 %
30.06.2016 03:10 17,0 C 16,7 C 15,6 C 82 % 0 lf 1010,1 hPa 0,0 l/m 0 min 0 min 0 W/m 14,6 km/h (3 Bft) 95,74 %
30.06.2016 03:12 17,0 C 16,7 C 15,6 C 82 % 0 lf 1010,2 hPa 0,0 l/m 0 min 0 min 0 W/m 14,6 km/h (3 Bft) 97,87 %
30.06.2016 03:14 17,0 C 16,7 C 15,6 C 82 % 1 lf 1010,1 hPa 0,0 l/m 0 min 2 min 0 W/m 18,8 km/h (3 Bft) 93,62 %
30.06.2016 03:16 17,0 C 16,7 C 15,0 C 83 % 1 lf 1010,2 hPa 0,0 l/m 0 min 2 min 0 W/m 18,8 km/h (3 Bft) 95,74 %
30.06.2016 03:18 17,0 C 16,7 C 15,0 C 83 % 2 lf 1010,2 hPa 0,0 l/m 0 min 2 min 0 W/m 18,8 km/h (3 Bft) 95,74 %
30.06.2016 03:20 17,0 C 16,7 C 15,0 C 83 % 2 lf 1010,1 hPa 0,0 l/m 0 min 2 min 0 W/m 12,6 km/h (3 Bft) 93,48 %
30.06.2016 03:22 17,0 C 16,1 C 14,4 C 83 % 3 lf 1010,1 hPa 0,0 l/m 0 min 2 min 0 W/m 14,6 km/h (3 Bft) 93,62 %
30.06.2016 03:24 16,9 C 16,1 C 14,4 C 83 % 1 lf 1010,2 hPa 0,0 l/m 0 min 2 min 0 W/m 18,8 km/h (3 Bft) 91,49 %
30.06.2016 03:26 16,9 C 16,7 C 14,4 C 84 % 0 lf 1010,2 hPa 0,0 l/m 0 min 0 min 0 W/m 20,9 km/h (4 Bft) 93,62 %
30.06.2016 03:28 16,9 C 16,7 C 14,4 C 84 % 0 lf 1010,2 hPa 0,0 l/m 0 min 0 min 0 W/m 16,7 km/h (3 Bft) 89,36 %
30.06.2016 03:30 16,9 C 16,7 C 14,4 C 84 % 0 lf 1010,2 hPa 0,0 l/m 0 min 0 min 0 W/m 12,6 km/h (3 Bft) 95,74 %
30.06.2016 03:32 16,9 C 16,7 C 14,4 C 84 % 0 lf 1010,2 hPa 0,0 l/m 0 min 0 min 0 W/m 10,5 km/h (2 Bft) 93,62 %
30.06.2016 03:34 16,8 C 16,7 C 15,0 C 84 % 0 lf 1010,2 hPa 0,0 l/m 0 min 0 min 0 W/m 10,5 km/h (2 Bft) 95,74 %
30.06.2016 03:36 16,8 C 16,7 C 15,0 C 84 % 0 lf 1010,2 hPa 0,0 l/m 0 min 0 min 0 W/m 14,6 km/h (3 Bft) 90,00 %
30.06.2016 03:38 16,8 C 16,7 C 15,0 C 84 % 1 lf 1010,2 hPa 0,0 l/m 0 min 0 min 0 W/m 14,6 km/h (3 Bft) 93,62 %
30.06.2016 03:40 16,8 C 16,1 C 15,0 C 84 % 0 lf 1010,3 hPa 0,0 l/m 0 min 2 min 0 W/m 18,8 km/h (3 Bft) 93,62 %
30.06.2016 03:42 16,8 C 16,1 C 15,0 C 84 % 0 lf 1010,2 hPa 0,0 l/m 0 min 2 min 0 W/m 14,6 km/h (3 Bft) 93,48 %
30.06.2016 03:44 16,7 C 16,1 C 14,4 C 84 % 2 lf 1010,3 hPa 0,0 l/m 0 min 2 min 0 W/m 12,6 km/h (3 Bft) 93,62 %
30.06.2016 03:46 16,7 C 15,6 C 14,4 C 85 % 1 lf 1010,2 hPa 0,0 l/m 0 min 2 min 0 W/m 16,7 km/h (3 Bft) 93,62 %
30.06.2016 03:48 16,7 C 15,6 C 14,4 C 85 % 0 lf 1010,1 hPa 0,0 l/m 0 min 2 min 0 W/m 10,5 km/h (2 Bft) 95,74 %
30.06.2016 03:50 16,7 C 15,6 C 14,4 C 85 % 0 lf 1010,1 hPa 0,0 l/m 0 min 2 min 0 W/m 14,6 km/h (3 Bft) 91,49 %
30.06.2016 03:52 16,7 C 15,6 C 14,4 C 85 % 0 lf 1010,1 hPa 0,0 l/m 0 min 0 min 0 W/m 10,5 km/h (2 Bft) 95,74 %
30.06.2016 03:54 16,7 C 15,6 C 14,4 C 85 % 0 lf 1010,2 hPa 0,0 l/m 0 min 0 min 0 W/m 16,7 km/h (3 Bft) 93,48 %
30.06.2016 03:56 16,6 C 15,6 C 14,4 C 85 % 0 lf 1010,2 hPa 0,0 l/m 0 min 0 min 0 W/m 16,7 km/h (3 Bft) 95,74 %
30.06.2016 03:58 16,6 C 15,6 C 14,4 C 86 % 0 lf 1010,2 hPa 0,0 l/m 0 min 0 min 0 W/m 14,6 km/h (3 Bft) 93,62 %
30.06.2016 04:00 16,6 C 16,1 C 14,4 C 86 % 0 lf 1010,2 hPa 0,0 l/m 0 min 0 min 0 W/m 14,6 km/h (3 Bft) 95,74 %
30.06.2016 04:02 16,5 C 16,1 C 14,4 C 86 % 0 lf 1010,2 hPa 0,0 l/m 0 min 0 min 0 W/m 14,6 km/h (3 Bft) 95,83 %
30.06.2016 04:04 16,5 C 16,1 C 14,4 C 86 % 0 lf 1010,2 hPa 0,0 l/m 0 min 0 min 0 W/m 14,6 km/h (3 Bft) 93,10 %
30.06.2016 04:06 16,4 C 15,6 C 14,4 C 86 % 0 lf 1010,2 hPa 0,0 l/m 0 min 0 min 0 W/m 14,6 km/h (3 Bft) 97,14 %
30.06.2016 04:08 16,4 C 15,6 C 14,4 C 86 % 0 lf 1010,2 hPa 0,0 l/m 0 min 0 min 0 W/m 14,6 km/h (3 Bft) 95,74 %
30.06.2016 04:10 16,4 C 15,6 C 13,9 C 86 % 6 lf 1010,2 hPa 0,0 l/m 0 min 2 min 0 W/m 14,6 km/h (3 Bft) 97,87 %
30.06.2016 04:12 16,4 C 15,6 C 13,9 C 87 % 9 lf 1010,3 hPa 0,0 l/m 0 min 2 min 0 W/m 14,6 km/h (3 Bft) 95,74 %
30.06.2016 04:14 16,4 C 15,0 C 13,9 C 87 % 13 lf 1010,3 hPa 0,0 l/m 0 min 2 min 0 W/m 16,7 km/h (3 Bft) 97,87 %
30.06.2016 04:16 16,4 C 15,0 C 13,9 C 87 % 15 lf 1010,3 hPa 0,0 l/m 0 min 2 min 0 W/m 18,8 km/h (3 Bft) 95,74 %
30.06.2016 04:18 16,3 C 14,4 C 13,9 C 87 % 15 lf 1010,3 hPa 0,0 l/m 0 min 2 min 0 W/m 14,6 km/h (3 Bft) 97,83 %
30.06.2016 04:20 16,3 C 14,4 C 13,3 C 87 % 15 lf 1010,3 hPa 0,0 l/m 0 min 2 min 0 W/m 14,6 km/h (3 Bft) 96,61 %
30.06.2016 04:22 16,3 C 14,4 C 13,3 C 87 % 15 lf 1010,3 hPa 0,0 l/m 0 min 2 min 0 W/m 18,8 km/h (3 Bft) 100,00 %
30.06.2016 04:24 16,2 C 14,4 C 13,3 C 87 % 15 lf 1010,2 hPa 0,0 l/m 0 min 2 min 0 W/m 14,6 km/h (3 Bft) 95,74 %
30.06.2016 04:26 16,2 C 14,4 C 13,3 C 87 % 15 lf 1010,3 hPa 0,0 l/m 0 min 0 min 0 W/m 16,7 km/h (3 Bft) 95,74 %
30.06.2016 04:28 16,1 C 14,4 C 13,3 C 87 % 15 lf 1010,3 hPa 0,0 l/m 0 min 2 min 0 W/m 20,9 km/h (4 Bft) 97,87 %
30.06.2016 04:30 16,1 C 14,4 C 13,3 C 87 % 14 lf 1010,3 hPa 0,0 l/m 0 min 0 min 0 W/m 18,8 km/h (3 Bft) 95,65 %
30.06.2016 04:32 16,0 C 14,4 C 13,3 C 87 % 14 lf 1010,3 hPa 0,0 l/m 0 min 0 min 0 W/m 12,6 km/h (3 Bft) 95,74 %
30.06.2016 04:34 15,9 C 14,4 C 13,3 C 87 % 14 lf 1010,3 hPa 0,0 l/m 0 min 0 min 0 W/m 18,8 km/h (3 Bft) 100,00 %
30.06.2016 04:36 15,9 C 14,4 C 13,3 C 87 % 13 lf 1010,3 hPa 0,0 l/m 0 min 0 min 0 W/m 18,8 km/h (3 Bft) 100,00 %
30.06.2016 04:38 15,8 C 14,4 C 13,3 C 87 % 12 lf 1010,3 hPa 0,0 l/m 0 min 0 min 0 W/m 12,6 km/h (3 Bft) 93,62 %
30.06.2016 04:40 15,8 C 14,4 C 13,3 C 87 % 11 lf 1010,3 hPa 0,0 l/m 0 min 0 min 0 W/m 18,8 km/h (3 Bft) 97,87 %
30.06.2016 04:42 15,7 C 14,4 C 13,3 C 87 % 8 lf 1010,3 hPa 0,0 l/m 0 min 0 min 0 W/m 20,9 km/h (4 Bft) 97,83 %
30.06.2016 04:44 15,7 C 14,4 C 13,3 C 88 % 4 lf 1010,3 hPa 0,0 l/m 0 min 0 min 0 W/m 20,9 km/h (4 Bft) 100,00 %
30.06.2016 04:46 15,6 C 14,4 C 13,3 C 88 % 3 lf 1010,3 hPa 0,0 l/m 0 min 0 min 0 W/m 20,9 km/h (4 Bft) 97,87 %
30.06.2016 04:48 15,6 C 14,4 C 13,3 C 88 % 1 lf 1010,4 hPa 0,0 l/m 0 min 0 min 0 W/m 18,8 km/h (3 Bft) 95,74 %
30.06.2016 04:50 15,6 C 14,4 C 13,3 C 88 % 0 lf 1010,3 hPa 0,0 l/m 0 min 0 min 0 W/m 23,0 km/h (4 Bft) 97,87 %
30.06.2016 04:52 15,6 C 14,4 C 13,3 C 88 % 0 lf 1010,4 hPa 0,0 l/m 0 min 0 min 0 W/m 14,6 km/h (3 Bft) 100,00 %
30.06.2016 04:54 15,5 C 14,4 C 13,3 C 88 % 0 lf 1010,4 hPa 0,0 l/m 0 min 0 min 0 W/m 10,5 km/h (2 Bft) 100,00 %
30.06.2016 04:56 15,5 C 15,0 C 13,3 C 88 % 0 lf 1010,4 hPa 0,0 l/m 0 min 0 min 0 W/m 16,7 km/h (3 Bft) 95,74 %
30.06.2016 04:58 15,5 C 15,0 C 13,3 C 88 % 0 lf 1010,4 hPa 0,0 l/m 0 min 0 min 0 W/m 10,5 km/h (2 Bft) 100,00 %
30.06.2016 05:00 15,5 C 15,0 C 13,3 C 88 % 0 lf 1010,4 hPa 0,0 l/m 0 min 0 min 0 W/m 18,8 km/h (3 Bft) 100,00 %
30.06.2016 05:02 15,5 C 15,0 C 13,3 C 88 % 0 lf 1010,4 hPa 0,0 l/m 0 min 0 min 0 W/m 12,6 km/h (3 Bft) 97,87 %
30.06.2016 05:04 15,4 C 15,0 C 13,3 C 88 % 0 lf 1010,5 hPa 0,0 l/m 0 min 0 min 0 W/m 12,6 km/h (3 Bft) 100,00 %
30.06.2016 05:06 15,4 C 15,0 C 13,3 C 88 % 0 lf 1010,5 hPa 0,0 l/m 0 min 0 min 0 W/m 12,6 km/h (3 Bft) 98,00 %
30.06.2016 05:08 15,4 C 15,0 C 13,3 C 88 % 0 lf 1010,4 hPa 0,0 l/m 0 min 0 min 0 W/m 10,5 km/h (2 Bft) 97,87 %
30.06.2016 05:10 15,4 C 15,0 C 13,3 C 89 % 0 lf 1010,4 hPa 0,0 l/m 0 min 0 min 0 W/m 8,4 km/h (2 Bft) 97,87 %
30.06.2016 05:12 15,4 C 15,0 C 13,3 C 89 % 0 lf 1010,4 hPa 0,0 l/m 0 min 0 min 0 W/m 10,5 km/h (2 Bft) 97,87 %
30.06.2016 05:14 15,4 C 15,6 C 13,3 C 89 % 0 lf 1010,4 hPa 0,0 l/m 0 min 0 min 0 W/m 10,5 km/h (2 Bft) 95,74 %
30.06.2016 05:16 15,4 C 15,6 C 13,3 C 89 % 0 lf 1010,4 hPa 0,0 l/m 0 min 0 min 0 W/m 8,4 km/h (2 Bft) 97,83 %
30.06.2016 05:18 15,4 C 15,0 C 13,3 C 89 % 0 lf 1010,5 hPa 0,0 l/m 0 min 0 min 0 W/m 10,5 km/h (2 Bft) 91,49 %
30.06.2016 05:20 15,4 C 15,0 C 13,3 C 89 % 0 lf 1010,5 hPa 0,0 l/m 0 min 0 min 0 W/m 6,3 km/h (2 Bft) 93,62 %
30.06.2016 05:22 15,4 C 15,0 C 13,3 C 89 % 0 lf 1010,5 hPa 0,0 l/m 0 min 0 min 0 W/m 8,4 km/h (2 Bft) 93,62 %
30.06.2016 05:24 15,4 C 15,0 C 13,9 C 89 % 0 lf 1010,5 hPa 0,0 l/m 0 min 0 min 0 W/m 14,6 km/h (3 Bft) 93,62 %
30.06.2016 05:26 15,4 C 15,6 C 13,9 C 89 % 0 lf 1010,5 hPa 0,0 l/m 0 min 0 min 0 W/m 14,6 km/h (3 Bft) 93,62 %
30.06.2016 05:28 15,4 C 15,6 C 13,9 C 89 % 0 lf 1010,4 hPa 0,0 l/m 0 min 2 min 0 W/m 14,6 km/h (3 Bft) 93,48 %
30.06.2016 05:30 15,4 C 15,6 C 13,9 C 89 % 0 lf 1010,4 hPa 0,0 l/m 0 min 0 min 0 W/m 8,4 km/h (2 Bft) 93,62 %
30.06.2016 05:32 15,4 C 15,6 C 13,9 C 89 % 0 lf 1010,5 hPa 0,0 l/m 0 min 0 min 0 W/m 12,6 km/h (3 Bft) 91,67 %
30.06.2016 05:34 15,4 C 15,6 C 13,9 C 89 % 0 lf 1010,5 hPa 0,0 l/m 0 min 0 min 1 W/m 8,4 km/h (2 Bft) 91,49 %
30.06.2016 05:36 15,4 C 15,6 C 13,9 C 90 % 0 lf 1010,5 hPa 0,0 l/m 0 min 0 min 5 W/m 12,6 km/h (3 Bft) 91,49 %
30.06.2016 05:38 15,4 C 15,6 C 13,9 C 90 % 0 lf 1010,5 hPa 0,0 l/m 0 min 0 min 5 W/m 12,6 km/h (3 Bft) 88,89 %
30.06.2016 05:40 15,4 C 15,6 C 13,9 C 90 % 0 lf 1010,5 hPa 0,0 l/m 0 min 0 min 5 W/m 8,4 km/h (2 Bft) 93,10 %
30.06.2016 05:42 15,4 C 15,6 C 13,9 C 90 % 0 lf 1010,5 hPa 0,0 l/m 0 min 0 min 5 W/m 14,6 km/h (3 Bft) 94,29 %
30.06.2016 05:44 15,4 C 15,6 C 13,9 C 90 % 0 lf 1010,5 hPa 0,0 l/m 0 min 0 min 7 W/m 14,6 km/h (3 Bft) 89,36 %
30.06.2016 05:46 15,4 C 15,6 C 13,9 C 90 % 0 lf 1010,5 hPa 0,0 l/m 0 min 0 min 7 W/m 16,7 km/h (3 Bft) 93,62 %
30.06.2016 05:48 15,4 C 15,6 C 13,9 C 90 % 0 lf 1010,6 hPa 0,0 l/m 0 min 0 min 7 W/m 14,6 km/h (3 Bft) 95,74 %
30.06.2016 05:50 15,4 C 15,6 C 13,9 C 90 % 0 lf 1010,5 hPa 0,0 l/m 0 min 0 min 7 W/m 14,6 km/h (3 Bft) 95,74 %
30.06.2016 05:52 15,4 C 15,6 C 13,9 C 90 % 0 lf 1010,6 hPa 0,0 l/m 0 min 0 min 9 W/m 8,4 km/h (2 Bft) 91,30 %
30.06.2016 05:54 15,4 C 15,6 C 13,9 C 90 % 0 lf 1010,6 hPa 0,0 l/m 0 min 0 min 9 W/m 16,7 km/h (3 Bft) 95,74 %
30.06.2016 05:56 15,4 C 15,6 C 13,9 C 90 % 0 lf 1010,6 hPa 0,0 l/m 0 min 0 min 9 W/m 16,7 km/h (3 Bft) 93,62 %
30.06.2016 05:58 15,4 C 15,6 C 13,9 C 90 % 0 lf 1010,6 hPa 0,0 l/m 0 min 0 min 9 W/m 12,6 km/h (3 Bft) 95,74 %
30.06.2016 06:00 15,4 C 15,6 C 13,9 C 90 % 0 lf 1010,6 hPa 0,0 l/m 0 min 0 min 10 W/m 23,0 km/h (4 Bft) 93,62 %
30.06.2016 06:02 15,4 C 15,6 C 13,9 C 90 % 0 lf 1010,6 hPa 0,0 l/m 0 min 0 min 11 W/m 14,6 km/h (3 Bft) 93,62 %
30.06.2016 06:04 15,4 C 15,6 C 13,9 C 90 % 1 lf 1010,6 hPa 0,0 l/m 0 min 0 min 11 W/m 23,0 km/h (4 Bft) 93,48 %
30.06.2016 06:06 15,4 C 15,6 C 13,9 C 90 % 0 lf 1010,6 hPa 0,0 l/m 0 min 0 min 12 W/m 23,0 km/h (4 Bft) 96,23 %
30.06.2016 06:08 15,4 C 15,6 C 13,9 C 90 % 0 lf 1010,7 hPa 0,0 l/m 0 min 0 min 13 W/m 18,8 km/h (3 Bft) 97,87 %
30.06.2016 06:10 15,4 C 15,6 C 13,9 C 90 % 0 lf 1010,7 hPa 0,0 l/m 0 min 0 min 14 W/m 18,8 km/h (3 Bft) 89,36 %
30.06.2016 06:12 15,4 C 15,6 C 13,9 C 91 % 0 lf 1010,7 hPa 0,0 l/m 0 min 0 min 14 W/m 20,9 km/h (4 Bft) 97,87 %
30.06.2016 06:14 15,4 C 15,6 C 13,9 C 91 % 0 lf 1010,7 hPa 0,0 l/m 0 min 0 min 14 W/m 23,0 km/h (4 Bft) 97,87 %
30.06.2016 06:16 15,3 C 15,6 C 13,9 C 91 % 0 lf 1010,7 hPa 0,0 l/m 0 min 0 min 13 W/m 16,7 km/h (3 Bft) 93,48 %
30.06.2016 06:18 15,3 C 15,6 C 13,9 C 91 % 1 lf 1010,8 hPa 0,0 l/m 0 min 0 min 12 W/m 18,8 km/h (3 Bft) 93,62 %
30.06.2016 06:20 15,3 C 15,0 C 13,9 C 91 % 2 lf 1010,7 hPa 0,0 l/m 0 min 2 min 12 W/m 14,6 km/h (3 Bft) 97,87 %
30.06.2016 06:22 15,3 C 15,0 C 13,9 C 91 % 3 lf 1010,7 hPa 0,0 l/m 0 min 2 min 11 W/m 10,5 km/h (2 Bft) 100,00 %
30.06.2016 06:24 15,3 C 15,0 C 13,9 C 91 % 3 lf 1010,7 hPa 0,0 l/m 0 min 2 min 11 W/m 14,6 km/h (3 Bft) 100,00 %
30.06.2016 06:26 15,3 C 15,0 C 13,9 C 91 % 2 lf 1010,7 hPa 0,0 l/m 0 min 2 min 11 W/m 14,6 km/h (3 Bft) 97,87 %
30.06.2016 06:28 15,3 C 15,0 C 13,9 C 91 % 1 lf 1010,6 hPa 0,0 l/m 0 min 0 min 12 W/m 23,0 km/h (4 Bft) 97,83 %
30.06.2016 06:30 15,3 C 15,0 C 13,3 C 91 % 0 lf 1010,6 hPa 0,0 l/m 0 min 0 min 14 W/m 14,6 km/h (3 Bft) 100,00 %
30.06.2016 06:32 15,3 C 15,0 C 13,9 C 91 % 1 lf 1010,6 hPa 0,0 l/m 0 min 0 min 20 W/m 10,5 km/h (2 Bft) 97,92 %
30.06.2016 06:34 15,3 C 15,0 C 13,9 C 91 % 1 lf 1010,6 hPa 0,0 l/m 0 min 2 min 25 W/m 16,7 km/h (3 Bft) 100,00 %
30.06.2016 06:36 15,3 C 15,0 C 13,9 C 91 % 2 lf 1010,7 hPa 0,0 l/m 0 min 2 min 28 W/m 18,8 km/h (3 Bft) 98,00 %
30.06.2016 06:38 15,3 C 15,0 C 13,9 C 91 % 2 lf 1010,7 hPa 0,0 l/m 0 min 2 min 25 W/m 14,6 km/h (3 Bft) 100,00 %
30.06.2016 06:40 15,3 C 15,0 C 13,9 C 91 % 1 lf 1010,8 hPa 0,0 l/m 0 min 2 min 19 W/m 25,1 km/h (4 Bft) 100,00 %
30.06.2016 06:42 15,3 C 15,0 C 13,9 C 91 % 0 lf 1010,7 hPa 0,0 l/m 0 min 0 min 18 W/m 18,8 km/h (3 Bft) 97,87 %
30.06.2016 06:44 15,3 C 15,0 C 13,9 C 91 % 0 lf 1010,7 hPa 0,0 l/m 0 min 0 min 19 W/m 18,8 km/h (3 Bft) 100,00 %
30.06.2016 06:46 15,3 C 15,0 C 13,9 C 91 % 0 lf 1010,8 hPa 0,0 l/m 0 min 0 min 22 W/m 12,6 km/h (3 Bft) 97,87 %
30.06.2016 06:48 15,3 C 15,0 C 13,9 C 91 % 0 lf 1010,7 hPa 0,0 l/m 0 min 0 min 26 W/m 20,9 km/h (4 Bft) 100,00 %
30.06.2016 06:50 15,3 C 15,6 C 13,9 C 92 % 0 lf 1010,7 hPa 0,0 l/m 0 min 0 min 28 W/m 18,8 km/h (3 Bft) 100,00 %
30.06.2016 06:52 15,3 C 15,6 C 13,9 C 92 % 0 lf 1010,7 hPa 0,0 l/m 0 min 0 min 29 W/m 18,8 km/h (3 Bft) 100,00 %
30.06.2016 06:54 15,3 C 15,6 C 13,9 C 92 % 0 lf 1010,7 hPa 0,0 l/m 0 min 0 min 32 W/m 20,9 km/h (4 Bft) 100,00 %
30.06.2016 06:56 15,3 C 15,6 C 13,9 C 92 % 0 lf 1010,7 hPa 0,0 l/m 0 min 0 min 38 W/m 18,8 km/h (3 Bft) 100,00 %
30.06.2016 06:58 15,3 C 15,6 C 13,9 C 92 % 0 lf 1010,8 hPa 0,0 l/m 0 min 0 min 40 W/m 14,6 km/h (3 Bft) 97,87 %
30.06.2016 07:00 15,3 C 15,6 C 14,4 C 92 % 0 lf 1010,7 hPa 0,0 l/m 0 min 0 min 40 W/m 14,6 km/h (3 Bft) 97,83 %
30.06.2016 07:02 15,3 C 15,6 C 14,4 C 92 % 0 lf 1010,7 hPa 0,0 l/m 0 min 0 min 40 W/m 16,7 km/h (3 Bft) 95,74 %
30.06.2016 07:04 15,3 C 15,6 C 14,4 C 92 % 0 lf 1010,8 hPa 0,0 l/m 0 min 0 min 35 W/m 18,8 km/h (3 Bft) 100,00 %
30.06.2016 07:06 15,3 C 15,6 C 14,4 C 92 % 0 lf 1010,8 hPa 0,0 l/m 0 min 0 min 34 W/m 10,5 km/h (2 Bft) 97,96 %
30.06.2016 07:08 15,3 C 15,6 C 14,4 C 92 % 0 lf 1010,9 hPa 0,0 l/m 0 min 0 min 41 W/m 16,7 km/h (3 Bft) 97,87 %
30.06.2016 07:10 15,3 C 15,6 C 14,4 C 92 % 0 lf 1011,0 hPa 0,0 l/m 0 min 0 min 44 W/m 14,6 km/h (3 Bft) 97,83 %
30.06.2016 07:12 15,3 C 15,6 C 14,4 C 92 % 0 lf 1010,9 hPa 0,0 l/m 0 min 0 min 48 W/m 12,6 km/h (3 Bft) 95,74 %
30.06.2016 07:14 15,3 C 15,6 C 14,4 C 92 % 0 lf 1011,0 hPa 0,0 l/m 0 min 0 min 54 W/m 12,6 km/h (3 Bft) 97,87 %
30.06.2016 07:16 15,3 C 15,6 C 14,4 C 92 % 0 lf 1010,9 hPa 0,0 l/m 0 min 0 min 60 W/m 16,7 km/h (3 Bft) 97,87 %
30.06.2016 07:18 15,3 C 16,1 C 15,0 C 92 % 0 lf 1010,8 hPa 0,0 l/m 0 min 0 min 66 W/m 14,6 km/h (3 Bft) 95,74 %
30.06.2016 07:20 15,4 C 16,1 C 15,0 C 92 % 0 lf 1010,7 hPa 0,0 l/m 0 min 0 min 75 W/m 14,6 km/h (3 Bft) 97,87 %
30.06.2016 07:22 15,4 C 16,1 C 15,0 C 92 % 0 lf 1010,7 hPa 0,0 l/m 0 min 0 min 82 W/m 16,7 km/h (3 Bft) 97,83 %
30.06.2016 07:24 15,4 C 16,1 C 15,0 C 92 % 0 lf 1010,7 hPa 0,0 l/m 0 min 0 min 93 W/m 16,7 km/h (3 Bft) 93,62 %
30.06.2016 07:26 15,4 C 16,1 C 15,0 C 92 % 0 lf 1010,7 hPa 0,0 l/m 0 min 0 min 108 W/m 16,7 km/h (3 Bft) 93,62 %
30.06.2016 07:28 15,5 C 16,1 C 15,6 C 92 % 0 lf 1010,8 hPa 0,0 l/m 0 min 0 min 118 W/m 16,7 km/h (3 Bft) 95,74 %
30.06.2016 07:30 15,5 C 16,1 C 15,6 C 92 % 0 lf 1010,9 hPa 0,0 l/m 0 min 0 min 124 W/m 16,7 km/h (3 Bft) 95,74 %
30.06.2016 07:32 15,5 C 16,1 C 15,6 C 92 % 0 lf 1010,9 hPa 0,0 l/m 0 min 0 min 128 W/m 16,7 km/h (3 Bft) 91,43 %
30.06.2016 07:34 15,6 C 16,7 C 16,1 C 92 % 0 lf 1010,8 hPa 0,0 l/m 0 min 0 min 137 W/m 14,6 km/h (3 Bft) 91,49 %
30.06.2016 07:36 15,6 C 16,7 C 16,1 C 92 % 0 lf 1010,8 hPa 0,0 l/m 0 min 0 min 139 W/m 14,6 km/h (3 Bft) 93,48 %
30.06.2016 07:38 15,6 C 17,2 C 16,1 C 92 % 0 lf 1010,8 hPa 0,0 l/m 0 min 0 min 139 W/m 10,5 km/h (2 Bft) 97,87 %
30.06.2016 07:40 15,6 C 17,2 C 16,1 C 92 % 0 lf 1010,8 hPa 0,0 l/m 0 min 0 min 136 W/m 16,7 km/h (3 Bft) 95,74 %
30.06.2016 07:42 15,7 C 17,2 C 16,1 C 92 % 0 lf 1010,7 hPa 0,0 l/m 0 min 0 min 128 W/m 12,6 km/h (3 Bft) 95,74 %
30.06.2016 07:44 15,7 C 17,2 C 16,1 C 92 % 0 lf 1010,8 hPa 0,0 l/m 0 min 0 min 127 W/m 16,7 km/h (3 Bft) 97,87 %
30.06.2016 07:46 15,7 C 16,7 C 16,1 C 92 % 0 lf 1010,7 hPa 0,0 l/m 0 min 0 min 129 W/m 27,2 km/h (4 Bft) 95,74 %
30.06.2016 07:48 15,8 C 16,7 C 16,1 C 92 % 0 lf 1010,9 hPa 0,0 l/m 0 min 0 min 123 W/m 18,8 km/h (3 Bft) 95,65 %
30.06.2016 07:50 15,8 C 16,7 C 16,1 C 92 % 0 lf 1010,9 hPa 0,0 l/m 0 min 0 min 106 W/m 12,6 km/h (3 Bft) 97,87 %
30.06.2016 07:52 15,8 C 16,7 C 16,1 C 92 % 0 lf 1010,9 hPa 0,0 l/m 0 min 0 min 98 W/m 20,9 km/h (4 Bft) 93,62 %
30.06.2016 07:54 15,8 C 16,7 C 15,6 C 91 % 0 lf 1010,8 hPa 0,0 l/m 0 min 0 min 108 W/m 23,0 km/h (4 Bft) 95,74 %
30.06.2016 07:56 15,8 C 16,7 C 16,1 C 91 % 0 lf 1010,9 hPa 0,0 l/m 0 min 0 min 117 W/m 18,8 km/h (3 Bft) 97,87 %
30.06.2016 07:58 15,9 C 16,7 C 16,1 C 91 % 0 lf 1010,9 hPa 0,0 l/m 0 min 0 min 125 W/m 14,6 km/h (3 Bft) 95,74 %
30.06.2016 08:00 15,9 C 17,2 C 16,1 C 91 % 0 lf 1011,0 hPa 0,0 l/m 0 min 0 min 135 W/m 14,6 km/h (3 Bft) 95,74 %
30.06.2016 08:02 15,9 C 17,2 C 16,1 C 91 % 0 lf 1011,0 hPa 0,0 l/m 0 min 0 min 137 W/m 14,6 km/h (3 Bft) 94,23 %
30.06.2016 08:04 15,9 C 17,2 C 16,1 C 91 % 0 lf 1010,9 hPa 0,0 l/m 0 min 0 min 132 W/m 14,6 km/h (3 Bft) 97,87 %
30.06.2016 08:06 16,0 C 17,2 C 16,1 C 91 % 0 lf 1011,0 hPa 0,0 l/m 0 min 0 min 137 W/m 14,6 km/h (3 Bft) 94,00 %
30.06.2016 08:08 16,1 C 17,2 C 16,1 C 91 % 0 lf 1011,0 hPa 0,0 l/m 0 min 0 min 145 W/m 16,7 km/h (3 Bft) 91,49 %
30.06.2016 08:10 16,1 C 17,2 C 16,1 C 90 % 0 lf 1011,1 hPa 0,0 l/m 0 min 0 min 139 W/m 25,1 km/h (4 Bft) 91,43 %
30.06.2016 08:12 16,1 C 17,2 C 16,1 C 90 % 0 lf 1011,1 hPa 0,0 l/m 0 min 0 min 123 W/m 23,0 km/h (4 Bft) 96,72 %
30.06.2016 08:14 16,1 C 17,2 C 16,1 C 90 % 0 lf 1011,0 hPa 0,0 l/m 0 min 0 min 128 W/m 12,6 km/h (3 Bft) 95,74 %
30.06.2016 08:16 16,2 C 17,2 C 16,7 C 90 % 0 lf 1011,0 hPa 0,0 l/m 0 min 0 min 136 W/m 14,6 km/h (3 Bft) 91,49 %
30.06.2016 08:18 16,2 C 17,2 C 16,7 C 90 % 0 lf 1011,0 hPa 0,0 l/m 0 min 0 min 149 W/m 16,7 km/h (3 Bft) 97,14 %
30.06.2016 08:20 16,2 C 17,2 C 16,7 C 90 % 0 lf 1011,1 hPa 0,0 l/m 0 min 0 min 159 W/m 25,1 km/h (4 Bft) 91,49 %
30.06.2016 08:22 16,2 C 17,2 C 16,7 C 90 % 0 lf 1011,1 hPa 0,0 l/m 0 min 0 min 165 W/m 23,0 km/h (4 Bft) 89,36 %
30.06.2016 08:24 16,3 C 17,2 C 16,7 C 90 % 0 lf 1011,1 hPa 0,0 l/m 0 min 0 min 160 W/m 29,3 km/h (5 Bft) 95,65 %
30.06.2016 08:26 16,3 C 17,2 C 16,7 C 89 % 0 lf 1011,1 hPa 0,0 l/m 0 min 0 min 149 W/m 16,7 km/h (3 Bft) 95,74 %
30.06.2016 08:28 16,3 C 17,8 C 16,7 C 89 % 0 lf 1011,1 hPa 0,0 l/m 0 min 0 min 141 W/m 20,9 km/h (4 Bft) 95,74 %
30.06.2016 08:30 16,3 C 17,2 C 16,7 C 89 % 0 lf 1011,1 hPa 0,0 l/m 0 min 0 min 139 W/m 16,7 km/h (3 Bft) 93,62 %
30.06.2016 08:32 16,3 C 17,8 C 16,7 C 89 % 0 lf 1011,1 hPa 0,0 l/m 0 min 0 min 141 W/m 14,6 km/h (3 Bft) 95,74 %
30.06.2016 08:34 16,4 C 17,2 C 16,7 C 89 % 0 lf 1011,1 hPa 0,0 l/m 0 min 0 min 145 W/m 29,3 km/h (5 Bft) 87,23 %
30.06.2016 08:36 16,4 C 17,2 C 16,7 C 89 % 0 lf 1011,1 hPa 0,0 l/m 0 min 0 min 145 W/m 18,8 km/h (3 Bft) 90,32 %
30.06.2016 08:38 16,4 C 17,2 C 16,7 C 89 % 0 lf 1011,1 hPa 0,0 l/m 0 min 0 min 144 W/m 14,6 km/h (3 Bft) 95,16 %
30.06.2016 08:40 16,4 C 17,8 C 16,7 C 88 % 0 lf 1011,1 hPa 0,0 l/m 0 min 0 min 136 W/m 12,6 km/h (3 Bft) 95,74 %
30.06.2016 08:42 16,4 C 17,2 C 16,7 C 88 % 0 lf 1011,1 hPa 0,0 l/m 0 min 0 min 128 W/m 18,8 km/h (3 Bft) 89,36 %
30.06.2016 08:44 16,5 C 17,2 C 16,7 C 88 % 0 lf 1011,1 hPa 0,0 l/m 0 min 0 min 128 W/m 23,0 km/h (4 Bft) 93,62 %
30.06.2016 08:46 16,5 C 17,2 C 16,7 C 88 % 0 lf 1011,1 hPa 0,0 l/m 0 min 0 min 127 W/m 20,9 km/h (4 Bft) 94,83 %
30.06.2016 08:48 16,5 C 17,2 C 16,7 C 88 % 0 lf 1011,2 hPa 0,0 l/m 0 min 0 min 131 W/m 23,0 km/h (4 Bft) 97,14 %
30.06.2016 08:50 16,6 C 17,2 C 16,7 C 88 % 0 lf 1011,2 hPa 0,0 l/m 0 min 0 min 148 W/m 23,0 km/h (4 Bft) 93,22 %
30.06.2016 08:52 16,6 C 17,2 C 16,7 C 88 % 0 lf 1011,2 hPa 0,0 l/m 0 min 0 min 152 W/m 25,1 km/h (4 Bft) 95,74 %
30.06.2016 08:54 16,6 C 17,2 C 16,7 C 88 % 0 lf 1011,1 hPa 0,0 l/m 0 min 0 min 153 W/m 25,1 km/h (4 Bft) 97,14 %
30.06.2016 08:56 16,6 C 17,8 C 16,7 C 88 % 0 lf 1011,1 hPa 0,0 l/m 0 min 0 min 155 W/m 27,2 km/h (4 Bft) 95,74 %
30.06.2016 08:58 16,6 C 17,2 C 16,7 C 88 % 0 lf 1011,2 hPa 0,0 l/m 0 min 0 min 150 W/m 16,7 km/h (3 Bft) 97,83 %
30.06.2016 09:00 16,6 C 17,8 C 16,7 C 87 % 0 lf 1011,2 hPa 0,0 l/m 0 min 0 min 151 W/m 12,6 km/h (3 Bft) 95,74 %
30.06.2016 09:02 16,6 C 17,8 C 17,2 C 87 % 0 lf 1011,3 hPa 0,0 l/m 0 min 0 min 159 W/m 12,6 km/h (3 Bft) 97,87 %
30.06.2016 09:04 16,7 C 17,8 C 17,2 C 87 % 0 lf 1011,2 hPa 0,0 l/m 0 min 0 min 165 W/m 14,6 km/h (3 Bft) 94,92 %
30.06.2016 09:06 16,7 C 17,8 C 17,2 C 87 % 0 lf 1011,3 hPa 0,0 l/m 0 min 0 min 166 W/m 20,9 km/h (4 Bft) 91,43 %
30.06.2016 09:08 16,7 C 17,8 C 17,2 C 87 % 0 lf 1011,4 hPa 0,0 l/m 0 min 0 min 167 W/m 20,9 km/h (4 Bft) 97,87 %
30.06.2016 09:10 16,7 C 17,8 C 17,2 C 87 % 0 lf 1011,4 hPa 0,0 l/m 0 min 0 min 164 W/m 25,1 km/h (4 Bft) 97,83 %
30.06.2016 09:12 16,7 C 17,8 C 17,2 C 87 % 0 lf 1011,4 hPa 0,0 l/m 0 min 0 min 164 W/m 27,2 km/h (4 Bft) 97,87 %
30.06.2016 09:14 16,7 C 17,8 C 17,2 C 87 % 0 lf 1011,4 hPa 0,0 l/m 0 min 0 min 166 W/m 14,6 km/h (3 Bft) 97,87 %
30.06.2016 09:16 16,8 C 18,3 C 17,2 C 87 % 0 lf 1011,3 hPa 0,0 l/m 0 min 0 min 170 W/m 8,4 km/h (2 Bft) 95,74 %
30.06.2016 09:18 16,8 C 18,3 C 17,2 C 87 % 0 lf 1011,2 hPa 0,0 l/m 0 min 0 min 171 W/m 14,6 km/h (3 Bft) 95,74 %
30.06.2016 09:20 16,8 C 17,8 C 17,2 C 87 % 0 lf 1011,3 hPa 0,0 l/m 0 min 0 min 148 W/m 25,1 km/h (4 Bft) 97,87 %
30.06.2016 09:22 16,8 C 17,8 C 17,2 C 87 % 0 lf 1011,3 hPa 0,0 l/m 0 min 0 min 161 W/m 14,6 km/h (3 Bft) 95,65 %
30.06.2016 09:24 16,9 C 18,3 C 17,2 C 87 % 0 lf 1011,4 hPa 0,0 l/m 0 min 0 min 185 W/m 18,8 km/h (3 Bft) 97,87 %
30.06.2016 09:26 16,9 C 18,3 C 17,8 C 87 % 0 lf 1011,5 hPa 0,0 l/m 0 min 0 min 203 W/m 14,6 km/h (3 Bft) 95,74 %
30.06.2016 09:28 16,9 C 18,9 C 17,8 C 87 % 0 lf 1011,5 hPa 0,0 l/m 0 min 0 min 209 W/m 10,5 km/h (2 Bft) 97,87 %
30.06.2016 09:30 17,0 C 18,9 C 17,8 C 87 % 0 lf 1011,5 hPa 0,0 l/m 0 min 0 min 208 W/m 12,6 km/h (3 Bft) 97,87 %
30.06.2016 09:32 17,0 C 18,9 C 17,8 C 87 % 0 lf 1011,5 hPa 0,0 l/m 0 min 0 min 212 W/m 23,0 km/h (4 Bft) 94,34 %
30.06.2016 09:34 17,1 C 18,9 C 17,8 C 86 % 0 lf 1011,6 hPa 0,0 l/m 0 min 0 min 215 W/m 20,9 km/h (4 Bft) 97,83 %
30.06.2016 09:36 17,1 C 18,9 C 17,8 C 86 % 0 lf 1011,5 hPa 0,0 l/m 0 min 0 min 200 W/m 14,6 km/h (3 Bft) 98,00 %
30.06.2016 09:38 17,1 C 18,9 C 17,8 C 86 % 0 lf 1011,5 hPa 0,0 l/m 0 min 0 min 171 W/m 20,9 km/h (4 Bft) 97,87 %
30.06.2016 09:40 17,1 C 18,9 C 17,8 C 86 % 0 lf 1011,5 hPa 0,0 l/m 0 min 0 min 166 W/m 20,9 km/h (4 Bft) 97,87 %
30.06.2016 09:42 17,2 C 18,3 C 17,2 C 86 % 0 lf 1011,5 hPa 0,0 l/m 0 min 0 min 189 W/m 27,2 km/h (4 Bft) 97,87 %
30.06.2016 09:44 17,2 C 18,9 C 17,8 C 86 % 0 lf 1011,5 hPa 0,0 l/m 0 min 0 min 225 W/m 23,0 km/h (4 Bft) 97,83 %
30.06.2016 09:46 17,2 C 18,9 C 17,8 C 86 % 0 lf 1011,6 hPa 0,0 l/m 0 min 0 min 225 W/m 20,9 km/h (4 Bft) 100,00 %
30.06.2016 09:48 17,2 C 18,9 C 17,8 C 86 % 0 lf 1011,5 hPa 0,0 l/m 0 min 0 min 237 W/m 27,2 km/h (4 Bft) 100,00 %
30.06.2016 09:50 17,2 C 18,9 C 17,8 C 86 % 0 lf 1011,6 hPa 0,0 l/m 0 min 0 min 248 W/m 29,3 km/h (5 Bft) 97,87 %
30.06.2016 09:52 17,2 C 19,4 C 17,8 C 85 % 0 lf 1011,6 hPa 0,0 l/m 0 min 0 min 248 W/m 25,1 km/h (4 Bft) 100,00 %
30.06.2016 09:54 17,3 C 18,9 C 17,8 C 85 % 0 lf 1011,6 hPa 0,0 l/m 0 min 0 min 232 W/m 18,8 km/h (3 Bft) 97,87 %
30.06.2016 09:56 17,3 C 18,9 C 17,8 C 85 % 0 lf 1011,6 hPa 0,0 l/m 0 min 0 min 214 W/m 29,3 km/h (5 Bft) 97,83 %
30.06.2016 09:58 17,3 C 18,9 C 17,8 C 85 % 0 lf 1011,6 hPa 0,0 l/m 0 min 0 min 216 W/m 20,9 km/h (4 Bft) 97,87 %
30.06.2016 10:00 17,3 C 18,9 C 17,8 C 85 % 0 lf 1011,6 hPa 0,0 l/m 0 min 0 min 212 W/m 20,9 km/h (4 Bft) 100,00 %
30.06.2016 10:02 17,3 C 18,9 C 17,8 C 85 % 0 lf 1011,6 hPa 0,0 l/m 0 min 0 min 204 W/m 16,7 km/h (3 Bft) 95,45 %
30.06.2016 10:04 17,4 C 18,9 C 17,8 C 85 % 0 lf 1011,6 hPa 0,0 l/m 0 min 0 min 205 W/m 29,3 km/h (5 Bft) 100,00 %
30.06.2016 10:06 17,4 C 18,3 C 17,8 C 85 % 0 lf 1011,6 hPa 0,0 l/m 0 min 0 min 210 W/m 20,9 km/h (4 Bft) 97,83 %
30.06.2016 10:08 17,4 C 18,9 C 18,3 C 85 % 0 lf 1011,6 hPa 0,0 l/m 0 min 0 min 235 W/m 23,0 km/h (4 Bft) 95,74 %
30.06.2016 10:10 17,4 C 18,9 C 18,3 C 85 % 0 lf 1011,6 hPa 0,0 l/m 0 min 0 min 264 W/m 23,0 km/h (4 Bft) 100,00 %
30.06.2016 10:12 17,4 C 18,9 C 18,3 C 84 % 0 lf 1011,6 hPa 0,0 l/m 0 min 0 min 284 W/m 27,2 km/h (4 Bft) 97,87 %
30.06.2016 10:14 17,4 C 19,4 C 18,3 C 84 % 0 lf 1011,6 hPa 0,0 l/m 0 min 0 min 270 W/m 23,0 km/h (4 Bft) 100,00 %
30.06.2016 10:16 17,4 C 19,4 C 18,3 C 84 % 0 lf 1011,6 hPa 0,0 l/m 0 min 0 min 236 W/m 20,9 km/h (4 Bft) 100,00 %
30.06.2016 10:18 17,5 C 19,4 C 18,3 C 84 % 0 lf 1011,6 hPa 0,0 l/m 0 min 0 min 239 W/m 20,9 km/h (4 Bft) 100,00 %
30.06.2016 10:20 17,6 C 19,4 C 18,3 C 84 % 0 lf 1011,6 hPa 0,0 l/m 0 min 0 min 241 W/m 16,7 km/h (3 Bft) 100,00 %
30.06.2016 10:22 17,6 C 19,4 C 18,3 C 84 % 0 lf 1011,6 hPa 0,0 l/m 0 min 0 min 225 W/m 12,6 km/h (3 Bft) 100,00 %
30.06.2016 10:24 17,6 C 19,4 C 18,3 C 84 % 0 lf 1011,6 hPa 0,0 l/m 0 min 0 min 240 W/m 23,0 km/h (4 Bft) 97,87 %
30.06.2016 10:26 17,6 C 20,0 C 18,9 C 84 % 0 lf 1011,7 hPa 0,0 l/m 0 min 0 min 282 W/m 29,3 km/h (5 Bft) 100,00 %
30.06.2016 10:28 17,7 C 20,6 C 19,4 C 84 % 0 lf 1011,7 hPa 0,0 l/m 2 min 0 min 359 W/m 23,0 km/h (4 Bft) 100,00 %
30.06.2016 10:30 17,7 C 20,6 C 19,4 C 84 % 0 lf 1011,6 hPa 0,0 l/m 2 min 0 min 405 W/m 20,9 km/h (4 Bft) 97,83 %
30.06.2016 10:32 17,8 C 21,1 C 20,0 C 84 % 0 lf 1011,6 hPa 0,0 l/m 2 min 0 min 405 W/m 14,6 km/h (3 Bft) 100,00 %
30.06.2016 10:34 17,9 C 21,1 C 20,0 C 84 % 0 lf 1011,6 hPa 0,0 l/m 2 min 0 min 373 W/m 14,6 km/h (3 Bft) 100,00 %
30.06.2016 10:36 17,9 C 21,1 C 20,0 C 84 % 0 lf 1011,6 hPa 0,0 l/m 2 min 0 min 344 W/m 20,9 km/h (4 Bft) 100,00 %
30.06.2016 10:38 18,0 C 21,1 C 20,6 C 83 % 0 lf 1011,6 hPa 0,0 l/m 2 min 0 min 392 W/m 29,3 km/h (5 Bft) 100,00 %
30.06.2016 10:40 18,1 C 21,7 C 20,6 C 83 % 0 lf 1011,6 hPa 0,0 l/m 2 min 0 min 454 W/m 31,4 km/h (5 Bft) 100,00 %
30.06.2016 10:42 18,1 C 22,8 C 21,1 C 83 % 0 lf 1011,6 hPa 0,0 l/m 2 min 0 min 548 W/m 18,8 km/h (3 Bft) 95,74 %
30.06.2016 10:44 18,2 C 22,8 C 21,7 C 83 % 0 lf 1011,6 hPa 0,0 l/m 2 min 0 min 788 W/m 20,9 km/h (4 Bft) 95,74 %
30.06.2016 10:46 18,3 C 23,3 C 22,2 C 83 % 0 lf 1011,6 hPa 0,0 l/m 2 min 0 min 477 W/m 18,8 km/h (3 Bft) 97,83 %
30.06.2016 10:48 18,4 C 22,2 C 21,7 C 82 % 0 lf 1011,6 hPa 0,0 l/m 2 min 0 min 432 W/m 23,0 km/h (4 Bft) 93,62 %
30.06.2016 10:50 18,5 C 22,2 C 21,1 C 82 % 0 lf 1011,5 hPa 0,0 l/m 2 min 0 min 417 W/m 25,1 km/h (4 Bft) 95,74 %
30.06.2016 10:52 18,6 C 22,8 C 21,1 C 81 % 0 lf 1011,5 hPa 0,0 l/m 2 min 0 min 444 W/m 23,0 km/h (4 Bft) 93,62 %
30.06.2016 10:54 18,7 C 22,8 C 21,1 C 81 % 0 lf 1011,6 hPa 0,0 l/m 2 min 0 min 465 W/m 25,1 km/h (4 Bft) 91,49 %
30.06.2016 10:56 18,7 C 22,2 C 21,1 C 80 % 0 lf 1011,6 hPa 0,0 l/m 2 min 0 min 427 W/m 25,1 km/h (4 Bft) 95,74 %
30.06.2016 10:58 18,8 C 22,2 C 20,6 C 80 % 0 lf 1011,5 hPa 0,0 l/m 2 min 0 min 387 W/m 23,0 km/h (4 Bft) 91,30 %
30.06.2016 11:00 18,8 C 22,2 C 20,6 C 80 % 0 lf 1011,6 hPa 0,0 l/m 0 min 0 min 319 W/m 18,8 km/h (3 Bft) 92,86 %
30.06.2016 11:02 18,8 C 21,1 C 20,0 C 80 % 0 lf 1011,6 hPa 0,0 l/m 0 min 0 min 273 W/m 25,1 km/h (4 Bft) 94,00 %
30.06.2016 11:04 18,8 C 21,1 C 20,0 C 79 % 0 lf 1011,6 hPa 0,0 l/m 0 min 2 min 303 W/m 20,9 km/h (4 Bft) 92,00 %
30.06.2016 11:06 18,9 C 21,1 C 20,6 C 79 % 0 lf 1011,6 hPa 0,0 l/m 0 min 0 min 346 W/m 23,0 km/h (4 Bft) 95,65 %
30.06.2016 11:08 18,9 C 21,1 C 20,6 C 79 % 0 lf 1011,6 hPa 0,0 l/m 2 min 0 min 366 W/m 23,0 km/h (4 Bft) 95,74 %
30.06.2016 11:10 18,9 C 21,1 C 20,0 C 79 % 0 lf 1011,6 hPa 0,0 l/m 0 min 0 min 304 W/m 16,7 km/h (3 Bft) 95,74 %
30.06.2016 11:12 18,9 C 20,6 C 20,0 C 79 % 0 lf 1011,7 hPa 0,0 l/m 0 min 0 min 216 W/m 18,8 km/h (3 Bft) 93,62 %
30.06.2016 11:14 18,9 C 20,6 C 19,4 C 79 % 0 lf 1011,7 hPa 0,0 l/m 0 min 0 min 199 W/m 12,6 km/h (3 Bft) 89,36 %
30.06.2016 11:16 18,9 C 20,6 C 19,4 C 79 % 0 lf 1011,7 hPa 0,0 l/m 0 min 0 min 216 W/m 14,6 km/h (3 Bft) 89,36 %
30.06.2016 11:18 18,9 C 21,1 C 20,0 C 80 % 0 lf 1011,7 hPa 0,0 l/m 0 min 0 min 262 W/m 14,6 km/h (3 Bft) 91,30 %
30.06.2016 11:20 18,9 C 20,6 C 20,0 C 80 % 0 lf 1011,7 hPa 0,0 l/m 0 min 0 min 269 W/m 20,9 km/h (4 Bft) 93,62 %
30.06.2016 11:22 18,9 C 20,6 C 20,6 C 80 % 0 lf 1011,6 hPa 0,0 l/m 0 min 0 min 343 W/m 23,0 km/h (4 Bft) 89,36 %
30.06.2016 11:24 18,9 C 20,6 C 20,0 C 80 % 0 lf 1011,6 hPa 0,0 l/m 0 min 0 min 306 W/m 25,1 km/h (4 Bft) 87,23 %
30.06.2016 11:26 18,9 C 20,6 C 20,0 C 79 % 0 lf 1011,7 hPa 0,0 l/m 0 min 0 min 198 W/m 14,6 km/h (3 Bft) 91,49 %
30.06.2016 11:28 18,9 C 20,6 C 20,0 C 80 % 0 lf 1011,6 hPa 0,0 l/m 0 min 0 min 186 W/m 23,0 km/h (4 Bft) 89,36 %
30.06.2016 11:30 18,9 C 20,6 C 19,4 C 79 % 0 lf 1011,7 hPa 0,0 l/m 0 min 0 min 253 W/m 29,3 km/h (5 Bft) 91,30 %
30.06.2016 11:32 18,9 C 21,1 C 20,0 C 79 % 0 lf 1011,8 hPa 0,0 l/m 0 min 0 min 359 W/m 29,3 km/h (5 Bft) 87,23 %
30.06.2016 11:34 18,9 C 21,1 C 20,6 C 79 % 0 lf 1011,8 hPa 0,0 l/m 2 min 0 min 462 W/m 20,9 km/h (4 Bft) 91,49 %
30.06.2016 11:36 18,9 C 22,2 C 21,7 C 79 % 0 lf 1011,8 hPa 0,0 l/m 2 min 0 min 550 W/m 29,3 km/h (5 Bft) 90,74 %
30.06.2016 11:38 19,0 C 22,2 C 21,7 C 79 % 0 lf 1011,8 hPa 0,0 l/m 2 min 0 min 429 W/m 23,0 km/h (4 Bft) 93,62 %
30.06.2016 11:40 19,1 C 22,2 C 21,1 C 80 % 0 lf 1011,7 hPa 0,0 l/m 0 min 0 min 290 W/m 20,9 km/h (4 Bft) 91,49 %
30.06.2016 11:42 19,1 C 21,7 C 20,6 C 79 % 0 lf 1011,8 hPa 0,0 l/m 0 min 0 min 222 W/m 16,7 km/h (3 Bft) 91,30 %
30.06.2016 11:44 19,2 C 20,6 C 20,6 C 79 % 0 lf 1011,8 hPa 0,0 l/m 0 min 0 min 196 W/m 14,6 km/h (3 Bft) 95,74 %
30.06.2016 11:46 19,2 C 20,6 C 20,0 C 79 % 0 lf 1011,8 hPa 0,0 l/m 0 min 0 min 184 W/m 23,0 km/h (4 Bft) 91,49 %
30.06.2016 11:48 19,1 C 20,0 C 19,4 C 78 % 0 lf 1011,8 hPa 0,0 l/m 0 min 0 min 147 W/m 23,0 km/h (4 Bft) 93,62 %
30.06.2016 11:50 19,1 C 19,4 C 18,9 C 77 % 0 lf 1011,8 hPa 0,0 l/m 0 min 0 min 112 W/m 33,5 km/h (5 Bft) 95,74 %
30.06.2016 11:52 19,0 C 18,9 C 18,3 C 77 % 0 lf 1011,8 hPa 0,0 l/m 0 min 0 min 89 W/m 25,1 km/h (4 Bft) 97,83 %
30.06.2016 11:54 18,9 C 19,4 C 18,3 C 77 % 0 lf 1011,9 hPa 0,0 l/m 0 min 0 min 121 W/m 20,9 km/h (4 Bft) 95,74 %
30.06.2016 11:56 18,9 C 19,4 C 18,3 C 78 % 0 lf 1011,9 hPa 0,0 l/m 0 min 0 min 173 W/m 16,7 km/h (3 Bft) 97,87 %
30.06.2016 11:58 18,9 C 19,4 C 18,9 C 78 % 0 lf 1011,9 hPa 0,0 l/m 0 min 0 min 260 W/m 18,8 km/h (3 Bft) 97,87 %
30.06.2016 12:00 18,9 C 20,6 C 20,0 C 79 % 0 lf 1011,9 hPa 0,0 l/m 0 min 0 min 390 W/m 18,8 km/h (3 Bft) 95,35 %
30.06.2016 12:02 18,9 C 21,1 C 20,6 C 79 % 0 lf 1011,8 hPa 0,0 l/m 2 min 0 min 414 W/m 23,0 km/h (4 Bft) 97,37 %
30.06.2016 12:04 18,9 C 21,1 C 21,1 C 79 % 0 lf 1011,8 hPa 0,0 l/m 0 min 0 min 324 W/m 18,8 km/h (3 Bft) 95,74 %
30.06.2016 12:06 18,9 C 20,6 C 20,6 C 79 % 0 lf 1011,8 hPa 0,0 l/m 0 min 0 min 270 W/m 18,8 km/h (3 Bft) 96,15 %
30.06.2016 12:08 18,9 C 20,6 C 20,6 C 79 % 0 lf 1011,8 hPa 0,0 l/m 0 min 0 min 289 W/m 16,7 km/h (3 Bft) 95,83 %
30.06.2016 12:10 18,9 C 20,6 C 21,1 C 79 % 0 lf 1011,9 hPa 0,0 l/m 0 min 0 min 384 W/m 27,2 km/h (4 Bft) 97,87 %
30.06.2016 12:12 19,0 C 21,7 C 21,1 C 79 % 0 lf 1011,8 hPa 0,0 l/m 2 min 0 min 482 W/m 20,9 km/h (4 Bft) 97,87 %
30.06.2016 12:14 19,1 C 22,8 C 22,2 C 79 % 0 lf 1011,8 hPa 0,0 l/m 2 min 0 min 476 W/m 12,6 km/h (3 Bft) 95,74 %
30.06.2016 12:16 19,1 C 22,2 C 21,7 C 80 % 0 lf 1011,9 hPa 0,0 l/m 0 min 0 min 399 W/m 31,4 km/h (5 Bft) 97,87 %
30.06.2016 12:18 19,1 C 22,2 C 21,1 C 79 % 0 lf 1011,9 hPa 0,0 l/m 0 min 0 min 356 W/m 31,4 km/h (5 Bft) 95,65 %
30.06.2016 12:20 19,2 C 21,1 C 21,7 C 79 % 0 lf 1011,8 hPa 0,0 l/m 0 min 0 min 349 W/m 18,8 km/h (3 Bft) 95,74 %
30.06.2016 12:22 19,2 C 21,1 C 21,1 C 79 % 0 lf 1011,9 hPa 0,0 l/m 0 min 0 min 353 W/m 29,3 km/h (5 Bft) 100,00 %
30.06.2016 12:24 19,2 C 21,1 C 20,6 C 79 % 0 lf 1011,9 hPa 0,0 l/m 0 min 0 min 354 W/m 29,3 km/h (5 Bft) 97,87 %
30.06.2016 12:26 19,2 C 21,1 C 20,6 C 79 % 0 lf 1011,8 hPa 0,0 l/m 0 min 0 min 376 W/m 27,2 km/h (4 Bft) 97,87 %
30.06.2016 12:28 19,2 C 22,2 C 21,1 C 79 % 0 lf 1011,8 hPa 0,0 l/m 2 min 0 min 425 W/m 25,1 km/h (4 Bft) 100,00 %
30.06.2016 12:30 19,2 C 21,7 C 21,7 C 79 % 0 lf 1011,8 hPa 0,0 l/m 2 min 0 min 427 W/m 25,1 km/h (4 Bft) 100,00 %
30.06.2016 12:32 19,3 C 21,7 C 21,1 C 79 % 0 lf 1011,9 hPa 0,0 l/m 0 min 0 min 329 W/m 12,6 km/h (3 Bft) 100,00 %
30.06.2016 12:34 19,3 C 21,7 C 21,1 C 80 % 0 lf 1011,9 hPa 0,0 l/m 0 min 0 min 272 W/m 14,6 km/h (3 Bft) 100,00 %
30.06.2016 12:36 19,4 C 21,7 C 21,1 C 80 % 0 lf 1012,0 hPa 0,0 l/m 0 min 0 min 298 W/m 16,7 km/h (3 Bft) 98,00 %
30.06.2016 12:38 19,4 C 21,7 C 21,7 C 80 % 0 lf 1012,0 hPa 0,0 l/m 0 min 0 min 340 W/m 12,6 km/h (3 Bft) 100,00 %
30.06.2016 12:40 19,5 C 21,7 C 21,7 C 80 % 0 lf 1012,0 hPa 0,0 l/m 0 min 0 min 391 W/m 16,7 km/h (3 Bft) 97,83 %
30.06.2016 12:42 19,6 C 21,7 C 21,7 C 80 % 0 lf 1012,0 hPa 0,0 l/m 0 min 0 min 328 W/m 25,1 km/h (4 Bft) 100,00 %
30.06.2016 12:44 19,6 C 21,1 C 21,1 C 79 % 0 lf 1012,0 hPa 0,0 l/m 0 min 0 min 213 W/m 23,0 km/h (4 Bft) 95,74 %
30.06.2016 12:46 19,6 C 20,6 C 20,0 C 79 % 0 lf 1012,0 hPa 0,0 l/m 0 min 0 min 142 W/m 25,1 km/h (4 Bft) 100,00 %
30.06.2016 12:48 19,6 C 20,6 C 19,4 C 78 % 0 lf 1012,1 hPa 0,0 l/m 0 min 0 min 119 W/m 16,7 km/h (3 Bft) 97,87 %
30.06.2016 12:50 19,5 C 20,0 C 19,4 C 78 % 0 lf 1012,0 hPa 0,0 l/m 0 min 0 min 136 W/m 20,9 km/h (4 Bft) 95,74 %
30.06.2016 12:52 19,5 C 20,0 C 18,9 C 78 % 0 lf 1012,1 hPa 0,0 l/m 0 min 0 min 148 W/m 16,7 km/h (3 Bft) 100,00 %
30.06.2016 12:54 19,4 C 20,0 C 19,4 C 79 % 0 lf 1012,0 hPa 0,0 l/m 0 min 0 min 141 W/m 14,6 km/h (3 Bft) 95,74 %
30.06.2016 12:56 19,4 C 19,4 C 18,9 C 79 % 0 lf 1012,0 hPa 0,0 l/m 0 min 0 min 118 W/m 14,6 km/h (3 Bft) 97,87 %
30.06.2016 12:58 19,4 C 20,0 C 18,9 C 79 % 0 lf 1012,1 hPa 0,0 l/m 0 min 0 min 112 W/m 14,6 km/h (3 Bft) 100,00 %
30.06.2016 13:00 19,4 C 20,0 C 18,9 C 79 % 0 lf 1012,0 hPa 0,0 l/m 0 min 0 min 146 W/m 14,6 km/h (3 Bft) 95,74 %
30.06.2016 13:02 19,4 C 21,1 C 20,0 C 80 % 0 lf 1012,0 hPa 0,0 l/m 0 min 0 min 190 W/m 16,7 km/h (3 Bft) 100,00 %
30.06.2016 13:04 19,4 C 22,2 C 21,1 C 80 % 0 lf 1012,0 hPa 0,0 l/m 0 min 0 min 212 W/m 16,7 km/h (3 Bft) 100,00 %
30.06.2016 13:06 19,4 C 22,2 C 21,1 C 80 % 0 lf 1012,0 hPa 0,0 l/m 0 min 0 min 348 W/m 18,8 km/h (3 Bft) 97,56 %
30.06.2016 13:08 19,4 C 21,7 C 21,1 C 79 % 0 lf 1012,0 hPa 0,0 l/m 0 min 0 min 247 W/m 14,6 km/h (3 Bft) 100,00 %
30.06.2016 13:10 19,5 C 21,7 C 20,6 C 79 % 0 lf 1012,0 hPa 0,0 l/m 0 min 0 min 212 W/m 14,6 km/h (3 Bft) 95,74 %
30.06.2016 13:12 19,5 C 22,2 C 20,6 C 79 % 0 lf 1012,0 hPa 0,0 l/m 0 min 0 min 267 W/m 23,0 km/h (4 Bft) 100,00 %
30.06.2016 13:14 19,6 C 23,3 C 21,7 C 79 % 0 lf 1012,0 hPa 0,0 l/m 0 min 0 min 290 W/m 18,8 km/h (3 Bft) 97,87 %
30.06.2016 13:16 19,6 C 23,3 C 21,7 C 78 % 0 lf 1012,0 hPa 0,0 l/m 0 min 0 min 393 W/m 20,9 km/h (4 Bft) 97,87 %
30.06.2016 13:18 19,7 C 22,8 C 21,7 C 78 % 0 lf 1012,1 hPa 0,0 l/m 0 min 0 min 374 W/m 18,8 km/h (3 Bft) 100,00 %
30.06.2016 13:20 19,7 C 22,8 C 22,2 C 79 % 0 lf 1012,0 hPa 0,0 l/m 0 min 0 min 407 W/m 16,7 km/h (3 Bft) 97,87 %
30.06.2016 13:22 19,8 C 22,8 C 22,2 C 79 % 0 lf 1012,0 hPa 0,0 l/m 0 min 0 min 374 W/m 18,8 km/h (3 Bft) 100,00 %
30.06.2016 13:24 19,8 C 22,8 C 22,2 C 78 % 0 lf 1011,9 hPa 0,0 l/m 0 min 0 min 361 W/m 14,6 km/h (3 Bft) 97,87 %
30.06.2016 13:26 19,9 C 22,8 C 22,8 C 78 % 0 lf 1012,0 hPa 0,0 l/m 0 min 0 min 348 W/m 16,7 km/h (3 Bft) 91,49 %
30.06.2016 13:28 20,0 C 22,8 C 22,2 C 79 % 0 lf 1012,0 hPa 0,0 l/m 0 min 0 min 300 W/m 14,6 km/h (3 Bft) 97,87 %
30.06.2016 13:30 20,1 C 23,3 C 22,2 C 78 % 0 lf 1012,0 hPa 0,0 l/m 0 min 0 min 358 W/m 16,7 km/h (3 Bft) 93,48 %
30.06.2016 13:32 20,1 C 24,4 C 22,8 C 78 % 0 lf 1012,0 hPa 0,0 l/m 0 min 0 min 372 W/m 10,5 km/h (2 Bft) 91,84 %
30.06.2016 13:34 20,2 C 25,0 C 23,3 C 79 % 0 lf 1012,0 hPa 0,0 l/m 2 min 0 min 473 W/m 8,4 km/h (2 Bft) 95,74 %
30.06.2016 13:36 20,2 C 23,3 C 22,8 C 79 % 0 lf 1012,0 hPa 0,0 l/m 0 min 0 min 346 W/m 27,2 km/h (4 Bft) 96,00 %
30.06.2016 13:38 20,3 C 22,2 C 21,7 C 77 % 0 lf 1012,0 hPa 0,0 l/m 0 min 0 min 254 W/m 27,2 km/h (4 Bft) 95,74 %
30.06.2016 13:40 20,3 C 21,1 C 21,1 C 76 % 0 lf 1012,0 hPa 0,0 l/m 0 min 0 min 196 W/m 29,3 km/h (5 Bft) 95,65 %
30.06.2016 13:42 20,3 C 21,1 C 21,1 C 76 % 0 lf 1012,0 hPa 0,0 l/m 0 min 0 min 205 W/m 18,8 km/h (3 Bft) 93,62 %
30.06.2016 13:44 20,2 C 21,1 C 21,1 C 76 % 0 lf 1012,0 hPa 0,0 l/m 0 min 0 min 250 W/m 14,6 km/h (3 Bft) 93,62 %
30.06.2016 13:46 20,3 C 21,7 C 21,7 C 77 % 0 lf 1012,0 hPa 0,0 l/m 0 min 0 min 302 W/m 16,7 km/h (3 Bft) 91,49 %
30.06.2016 13:48 20,3 C 22,2 C 21,7 C 77 % 0 lf 1012,0 hPa 0,0 l/m 0 min 0 min 289 W/m 12,6 km/h (3 Bft) 91,49 %
30.06.2016 13:50 20,3 C 22,2 C 21,7 C 77 % 0 lf 1012,0 hPa 0,0 l/m 0 min 0 min 266 W/m 18,8 km/h (3 Bft) 95,74 %
30.06.2016 13:52 20,3 C 22,2 C 21,7 C 77 % 0 lf 1011,9 hPa 0,0 l/m 0 min 0 min 226 W/m 14,6 km/h (3 Bft) 95,65 %
30.06.2016 13:54 20,3 C 21,7 C 21,1 C 77 % 0 lf 1012,0 hPa 0,0 l/m 0 min 0 min 198 W/m 10,5 km/h (2 Bft) 93,62 %
30.06.2016 13:56 20,3 C 21,7 C 20,6 C 77 % 0 lf 1012,0 hPa 0,0 l/m 0 min 0 min 188 W/m 18,8 km/h (3 Bft) 95,74 %
30.06.2016 13:58 20,3 C 21,7 C 20,6 C 77 % 0 lf 1012,0 hPa 0,0 l/m 0 min 0 min 207 W/m 16,7 km/h (3 Bft) 93,62 %
30.06.2016 14:00 20,3 C 22,2 C 20,6 C 77 % 0 lf 1011,9 hPa 0,0 l/m 0 min 0 min 245 W/m 10,5 km/h (2 Bft) 95,74 %
30.06.2016 14:02 20,3 C 22,8 C 21,1 C 77 % 0 lf 1011,9 hPa 0,0 l/m 0 min 0 min 242 W/m 12,6 km/h (3 Bft) 91,49 %
30.06.2016 14:04 20,3 C 22,8 C 21,1 C 77 % 0 lf 1011,9 hPa 0,0 l/m 0 min 0 min 241 W/m 12,6 km/h (3 Bft) 95,45 %
30.06.2016 14:06 20,3 C 22,2 C 21,1 C 77 % 0 lf 1011,9 hPa 0,0 l/m 0 min 0 min 246 W/m 20,9 km/h (4 Bft) 90,57 %
30.06.2016 14:08 20,3 C 22,2 C 20,6 C 77 % 0 lf 1011,9 hPa 0,0 l/m 0 min 0 min 249 W/m 20,9 km/h (4 Bft) 93,62 %
30.06.2016 14:10 20,3 C 22,2 C 20,6 C 77 % 0 lf 1011,9 hPa 0,0 l/m 0 min 0 min 251 W/m 16,7 km/h (3 Bft) 95,74 %
30.06.2016 14:12 20,3 C 22,2 C 20,6 C 76 % 0 lf 1011,9 hPa 0,0 l/m 0 min 0 min 249 W/m 27,2 km/h (4 Bft) 97,87 %
30.06.2016 14:14 20,3 C 22,2 C 20,6 C 76 % 0 lf 1012,0 hPa 0,0 l/m 0 min 0 min 252 W/m 25,1 km/h (4 Bft) 95,65 %
30.06.2016 14:16 20,3 C 21,7 C 21,1 C 76 % 0 lf 1011,9 hPa 0,0 l/m 0 min 0 min 247 W/m 18,8 km/h (3 Bft) 97,87 %
30.06.2016 14:18 20,3 C 21,7 C 21,1 C 77 % 0 lf 1011,9 hPa 0,0 l/m 0 min 0 min 260 W/m 23,0 km/h (4 Bft) 93,62 %
30.06.2016 14:20 20,2 C 21,1 C 21,1 C 76 % 0 lf 1011,9 hPa 0,0 l/m 0 min 0 min 220 W/m 23,0 km/h (4 Bft) 97,87 %
30.06.2016 14:22 20,2 C 21,1 C 20,6 C 76 % 0 lf 1011,9 hPa 0,0 l/m 0 min 0 min 176 W/m 20,9 km/h (4 Bft) 89,36 %
30.06.2016 14:24 20,3 C 21,1 C 20,6 C 76 % 0 lf 1011,9 hPa 0,0 l/m 0 min 0 min 143 W/m 18,8 km/h (3 Bft) 95,74 %
30.06.2016 14:26 20,2 C 21,1 C 20,0 C 76 % 0 lf 1011,8 hPa 0,0 l/m 0 min 0 min 116 W/m 14,6 km/h (3 Bft) 97,83 %
30.06.2016 14:28 20,2 C 20,6 C 20,0 C 76 % 0 lf 1011,9 hPa 0,0 l/m 0 min 0 min 108 W/m 18,8 km/h (3 Bft) 95,74 %
30.06.2016 14:30 20,2 C 20,6 C 19,4 C 76 % 0 lf 1011,9 hPa 0,0 l/m 0 min 0 min 102 W/m 14,6 km/h (3 Bft) 97,87 %
30.06.2016 14:32 20,2 C 20,6 C 19,4 C 76 % 0 lf 1011,9 hPa 0,0 l/m 0 min 0 min 91 W/m 20,9 km/h (4 Bft) 97,37 %
30.06.2016 14:34 20,1 C 20,6 C 19,4 C 77 % 0 lf 1011,9 hPa 0,0 l/m 0 min 0 min 95 W/m 16,7 km/h (3 Bft) 95,74 %
30.06.2016 14:36 20,1 C 20,6 C 19,4 C 77 % 0 lf 1011,9 hPa 0,0 l/m 0 min 0 min 110 W/m 16,7 km/h (3 Bft) 95,92 %
30.06.2016 14:38 20,1 C 20,6 C 19,4 C 77 % 0 lf 1011,9 hPa 0,0 l/m 0 min 0 min 108 W/m 12,6 km/h (3 Bft) 95,74 %
30.06.2016 14:40 20,0 C 20,6 C 18,9 C 77 % 0 lf 1011,9 hPa 0,0 l/m 0 min 0 min 91 W/m 12,6 km/h (3 Bft) 97,14 %
30.06.2016 14:42 19,9 C 20,0 C 18,9 C 77 % 0 lf 1011,9 hPa 0,0 l/m 0 min 0 min 76 W/m 14,6 km/h (3 Bft) 96,61 %
30.06.2016 14:44 19,9 C 20,0 C 18,9 C 77 % 0 lf 1011,9 hPa 0,0 l/m 0 min 0 min 70 W/m 18,8 km/h (3 Bft) 95,74 %
30.06.2016 14:46 19,9 C 20,0 C 18,9 C 77 % 0 lf 1011,9 hPa 0,0 l/m 0 min 0 min 68 W/m 23,0 km/h (4 Bft) 95,74 %
30.06.2016 14:48 19,8 C 20,0 C 18,3 C 77 % 0 lf 1011,9 hPa 0,0 l/m 0 min 0 min 67 W/m 25,1 km/h (4 Bft) 91,30 %
30.06.2016 14:50 19,8 C 20,0 C 18,3 C 77 % 0 lf 1011,9 hPa 0,0 l/m 0 min 0 min 68 W/m 14,6 km/h (3 Bft) 91,49 %
30.06.2016 14:52 19,8 C 20,0 C 18,3 C 78 % 0 lf 1011,9 hPa 0,0 l/m 0 min 0 min 83 W/m 20,9 km/h (4 Bft) 95,74 %
30.06.2016 14:54 19,8 C 20,0 C 18,9 C 78 % 0 lf 1012,0 hPa 0,0 l/m 0 min 0 min 101 W/m 27,2 km/h (4 Bft) 91,49 %
30.06.2016 14:56 19,7 C 20,0 C 18,9 C 78 % 0 lf 1012,0 hPa 0,0 l/m 0 min 0 min 141 W/m 12,6 km/h (3 Bft) 95,74 %
30.06.2016 14:58 19,7 C 20,6 C 19,4 C 79 % 0 lf 1011,9 hPa 0,0 l/m 0 min 0 min 193 W/m 14,6 km/h (3 Bft) 93,62 %
30.06.2016 15:00 19,7 C 21,1 C 20,0 C 79 % 0 lf 1012,0 hPa 0,0 l/m 0 min 0 min 264 W/m 18,8 km/h (3 Bft) 95,92 %
30.06.2016 15:02 19,8 C 22,2 C 21,7 C 79 % 0 lf 1011,9 hPa 0,0 l/m 2 min 0 min 412 W/m 12,6 km/h (3 Bft) 97,87 %
30.06.2016 15:04 19,8 C 23,9 C 23,3 C 80 % 0 lf 1011,9 hPa 0,0 l/m 2 min 0 min 625 W/m 14,6 km/h (3 Bft) 95,74 %
30.06.2016 15:06 19,9 C 23,9 C 23,3 C 80 % 0 lf 1011,9 hPa 0,0 l/m 2 min 0 min 547 W/m 25,1 km/h (4 Bft) 98,00 %
30.06.2016 15:08 20,0 C 23,9 C 23,3 C 79 % 0 lf 1011,9 hPa 0,0 l/m 2 min 0 min 482 W/m 27,2 km/h (4 Bft) 95,92 %
30.06.2016 15:10 20,1 C 23,9 C 23,3 C 78 % 0 lf 1011,9 hPa 0,0 l/m 2 min 0 min 416 W/m 20,9 km/h (4 Bft) 97,87 %
30.06.2016 15:12 20,2 C 23,3 C 22,8 C 78 % 0 lf 1011,9 hPa 0,0 l/m 0 min 0 min 303 W/m 27,2 km/h (4 Bft) 97,14 %
30.06.2016 15:14 20,3 C 22,8 C 22,2 C 77 % 0 lf 1011,9 hPa 0,0 l/m 0 min 0 min 199 W/m 16,7 km/h (3 Bft) 93,62 %
30.06.2016 15:16 20,3 C 22,2 C 21,1 C 77 % 0 lf 1011,9 hPa 0,0 l/m 0 min 0 min 137 W/m 23,0 km/h (4 Bft) 94,83 %
30.06.2016 15:18 20,3 C 21,7 C 20,6 C 76 % 0 lf 1011,9 hPa 0,0 l/m 0 min 0 min 126 W/m 20,9 km/h (4 Bft) 93,62 %
30.06.2016 15:20 20,3 C 21,7 C 20,6 C 76 % 0 lf 1012,0 hPa 0,0 l/m 0 min 0 min 170 W/m 18,8 km/h (3 Bft) 100,00 %
30.06.2016 15:22 20,3 C 21,7 C 20,6 C 76 % 0 lf 1011,9 hPa 0,0 l/m 0 min 0 min 271 W/m 20,9 km/h (4 Bft) 96,49 %
30.06.2016 15:24 20,3 C 21,7 C 21,1 C 76 % 0 lf 1012,0 hPa 0,0 l/m 0 min 0 min 319 W/m 20,9 km/h (4 Bft) 95,65 %
30.06.2016 15:26 20,4 C 22,2 C 21,1 C 76 % 0 lf 1011,9 hPa 0,0 l/m 0 min 0 min 336 W/m 31,4 km/h (5 Bft) 93,62 %
30.06.2016 15:28 20,4 C 22,2 C 21,7 C 77 % 0 lf 1011,9 hPa 0,0 l/m 0 min 0 min 357 W/m 25,1 km/h (4 Bft) 95,74 %
30.06.2016 15:30 20,4 C 22,8 C 21,7 C 76 % 0 lf 1011,9 hPa 0,0 l/m 0 min 0 min 346 W/m 29,3 km/h (5 Bft) 91,49 %
30.06.2016 15:32 20,4 C 22,2 C 21,7 C 75 % 0 lf 1012,0 hPa 0,0 l/m 0 min 0 min 304 W/m 35,6 km/h (5 Bft) 95,83 %
30.06.2016 15:34 20,4 C 22,2 C 21,1 C 74 % 0 lf 1012,0 hPa 0,0 l/m 0 min 0 min 272 W/m 31,4 km/h (5 Bft) 95,74 %
30.06.2016 15:36 20,4 C 21,7 C 21,1 C 74 % 0 lf 1012,0 hPa 0,0 l/m 0 min 0 min 273 W/m 31,4 km/h (5 Bft) 94,44 %
30.06.2016 15:38 20,4 C 21,7 C 21,1 C 73 % 0 lf 1012,0 hPa 0,0 l/m 0 min 0 min 289 W/m 31,4 km/h (5 Bft) 97,87 %
30.06.2016 15:40 20,4 C 22,2 C 21,1 C 74 % 0 lf 1011,9 hPa 0,0 l/m 0 min 0 min 315 W/m 20,9 km/h (4 Bft) 97,87 %
30.06.2016 15:42 20,4 C 22,2 C 21,7 C 74 % 0 lf 1012,0 hPa 0,0 l/m 0 min 0 min 358 W/m 18,8 km/h (3 Bft) 97,87 %
30.06.2016 15:44 20,5 C 22,8 C 22,2 C 75 % 0 lf 1011,9 hPa 0,0 l/m 2 min 0 min 382 W/m 25,1 km/h (4 Bft) 95,74 %
30.06.2016 15:46 20,6 C 22,8 C 22,8 C 75 % 0 lf 1011,9 hPa 0,0 l/m 0 min 0 min 356 W/m 27,2 km/h (4 Bft) 97,87 %
30.06.2016 15:48 20,6 C 23,3 C 22,8 C 75 % 0 lf 1012,0 hPa 0,0 l/m 0 min 0 min 343 W/m 25,1 km/h (4 Bft) 93,48 %
30.06.2016 15:50 20,7 C 23,3 C 22,2 C 75 % 0 lf 1011,9 hPa 0,0 l/m 0 min 0 min 324 W/m 18,8 km/h (3 Bft) 100,00 %
30.06.2016 15:52 20,7 C 23,3 C 22,2 C 75 % 0 lf 1011,9 hPa 0,0 l/m 0 min 0 min 317 W/m 25,1 km/h (4 Bft) 97,87 %
30.06.2016 15:54 20,7 C 23,3 C 22,2 C 74 % 0 lf 1011,9 hPa 0,0 l/m 0 min 0 min 300 W/m 20,9 km/h (4 Bft) 100,00 %
30.06.2016 15:56 20,8 C 22,8 C 22,2 C 74 % 0 lf 1011,9 hPa 0,0 l/m 0 min 0 min 261 W/m 16,7 km/h (3 Bft) 97,87 %
30.06.2016 15:58 20,8 C 22,2 C 21,7 C 75 % 0 lf 1011,9 hPa 0,0 l/m 0 min 0 min 231 W/m 18,8 km/h (3 Bft) 93,62 %
30.06.2016 16:00 20,8 C 22,8 C 21,7 C 75 % 0 lf 1011,9 hPa 0,0 l/m 0 min 0 min 221 W/m 23,0 km/h (4 Bft) 97,96 %
30.06.2016 16:02 20,8 C 22,2 C 21,7 C 75 % 0 lf 1011,9 hPa 0,0 l/m 0 min 0 min 233 W/m 23,0 km/h (4 Bft) 97,83 %
30.06.2016 16:04 20,8 C 22,2 C 21,7 C 74 % 0 lf 1011,9 hPa 0,0 l/m 0 min 0 min 249 W/m 16,7 km/h (3 Bft) 100,00 %
30.06.2016 16:06 20,8 C 22,2 C 21,7 C 74 % 0 lf 1011,8 hPa 0,0 l/m 0 min 0 min 251 W/m 14,6 km/h (3 Bft) 98,00 %
30.06.2016 16:08 20,8 C 22,2 C 21,7 C 74 % 0 lf 1011,9 hPa 0,0 l/m 0 min 0 min 255 W/m 12,6 km/h (3 Bft) 97,87 %
30.06.2016 16:10 20,8 C 22,2 C 21,7 C 74 % 0 lf 1011,8 hPa 0,0 l/m 0 min 0 min 281 W/m 35,6 km/h (5 Bft) 95,74 %
30.06.2016 16:12 20,8 C 22,2 C 21,7 C 73 % 0 lf 1011,9 hPa 0,0 l/m 0 min 0 min 306 W/m 27,2 km/h (4 Bft) 95,65 %
30.06.2016 16:14 20,8 C 22,2 C 22,2 C 74 % 0 lf 1011,9 hPa 0,0 l/m 2 min 0 min 363 W/m 18,8 km/h (3 Bft) 97,87 %
30.06.2016 16:16 20,8 C 22,8 C 22,8 C 74 % 0 lf 1011,8 hPa 0,0 l/m 2 min 0 min 442 W/m 25,1 km/h (4 Bft) 95,74 %
30.06.2016 16:18 20,9 C 23,3 C 23,3 C 75 % 0 lf 1011,8 hPa 0,0 l/m 2 min 0 min 425 W/m 23,0 km/h (4 Bft) 97,87 %
30.06.2016 16:20 20,9 C 23,3 C 23,3 C 75 % 0 lf 1011,8 hPa 0,0 l/m 2 min 0 min 359 W/m 18,8 km/h (3 Bft) 100,00 %
30.06.2016 16:22 21,0 C 23,3 C 22,8 C 75 % 0 lf 1011,8 hPa 0,0 l/m 0 min 0 min 349 W/m 23,0 km/h (4 Bft) 93,62 %
30.06.2016 16:24 21,0 C 23,3 C 22,8 C 75 % 0 lf 1011,8 hPa 0,0 l/m 2 min 0 min 361 W/m 14,6 km/h (3 Bft) 97,83 %
30.06.2016 16:26 21,1 C 23,3 C 23,3 C 75 % 0 lf 1011,9 hPa 0,0 l/m 2 min 0 min 377 W/m 25,1 km/h (4 Bft) 97,87 %
30.06.2016 16:28 21,1 C 23,3 C 23,3 C 74 % 0 lf 1011,8 hPa 0,0 l/m 2 min 0 min 384 W/m 25,1 km/h (4 Bft) 95,74 %
30.06.2016 16:30 21,2 C 23,9 C 22,8 C 74 % 0 lf 1011,9 hPa 0,0 l/m 0 min 0 min 310 W/m 29,3 km/h (5 Bft) 97,87 %
30.06.2016 16:32 21,2 C 22,8 C 22,2 C 73 % 0 lf 1011,8 hPa 0,0 l/m 0 min 0 min 221 W/m 35,6 km/h (5 Bft) 95,83 %
30.06.2016 16:34 21,1 C 22,2 C 21,7 C 73 % 0 lf 1011,8 hPa 0,0 l/m 0 min 0 min 197 W/m 23,0 km/h (4 Bft) 97,83 %
30.06.2016 16:36 21,1 C 22,2 C 21,1 C 73 % 0 lf 1011,8 hPa 0,0 l/m 0 min 0 min 222 W/m 23,0 km/h (4 Bft) 95,74 %
30.06.2016 16:38 21,1 C 22,2 C 21,7 C 74 % 0 lf 1011,8 hPa 0,0 l/m 0 min 0 min 280 W/m 16,7 km/h (3 Bft) 97,87 %
30.06.2016 16:40 21,1 C 22,2 C 22,2 C 74 % 0 lf 1011,8 hPa 0,0 l/m 0 min 0 min 317 W/m 16,7 km/h (3 Bft) 93,62 %
30.06.2016 16:42 21,1 C 22,8 C 22,8 C 75 % 0 lf 1011,8 hPa 0,0 l/m 2 min 0 min 347 W/m 12,6 km/h (3 Bft) 95,74 %
30.06.2016 16:44 21,1 C 23,3 C 22,8 C 76 % 0 lf 1011,8 hPa 0,0 l/m 2 min 0 min 357 W/m 10,5 km/h (2 Bft) 95,74 %
30.06.2016 16:46 21,2 C 23,3 C 22,8 C 76 % 0 lf 1011,8 hPa 0,0 l/m 2 min 0 min 341 W/m 18,8 km/h (3 Bft) 97,83 %
30.06.2016 16:48 21,2 C 23,3 C 22,8 C 75 % 0 lf 1011,8 hPa 0,0 l/m 0 min 0 min 326 W/m 20,9 km/h (4 Bft) 95,74 %
30.06.2016 16:50 21,2 C 23,3 C 22,8 C 75 % 0 lf 1011,8 hPa 0,0 l/m 0 min 0 min 314 W/m 14,6 km/h (3 Bft) 97,87 %
30.06.2016 16:52 21,2 C 23,3 C 22,8 C 75 % 0 lf 1011,8 hPa 0,0 l/m 0 min 0 min 321 W/m 14,6 km/h (3 Bft) 97,87 %
30.06.2016 16:54 21,2 C 23,3 C 22,8 C 75 % 0 lf 1011,7 hPa 0,0 l/m 2 min 0 min 340 W/m 14,6 km/h (3 Bft) 97,87 %
30.06.2016 16:56 21,2 C 23,3 C 23,3 C 75 % 0 lf 1011,7 hPa 0,0 l/m 2 min 0 min 355 W/m 14,6 km/h (3 Bft) 93,48 %
30.06.2016 16:58 21,3 C 23,9 C 23,3 C 76 % 0 lf 1011,8 hPa 0,0 l/m 2 min 0 min 383 W/m 10,5 km/h (2 Bft) 97,87 %
30.06.2016 17:00 21,3 C 23,9 C 23,9 C 76 % 0 lf 1011,8 hPa 0,0 l/m 2 min 0 min 363 W/m 14,6 km/h (3 Bft) 100,00 %
30.06.2016 17:02 21,4 C 23,9 C 23,3 C 76 % 0 lf 1011,8 hPa 0,0 l/m 2 min 0 min 323 W/m 14,6 km/h (3 Bft) 95,83 %
30.06.2016 17:04 21,4 C 23,3 C 23,3 C 76 % 0 lf 1011,7 hPa 0,0 l/m 0 min 0 min 288 W/m 12,6 km/h (3 Bft) 97,87 %
30.06.2016 17:06 21,4 C 22,8 C 23,3 C 76 % 0 lf 1011,7 hPa 0,0 l/m 0 min 0 min 256 W/m 14,6 km/h (3 Bft) 100,00 %
30.06.2016 17:08 21,4 C 22,8 C 22,8 C 76 % 0 lf 1011,7 hPa 0,0 l/m 0 min 0 min 257 W/m 18,8 km/h (3 Bft) 97,87 %
30.06.2016 17:10 21,4 C 22,8 C 21,7 C 74 % 6 lf 1011,7 hPa 0,0 l/m 0 min 2 min 247 W/m 27,2 km/h (4 Bft) 100,00 %
30.06.2016 17:12 21,4 C 22,2 C 21,1 C 75 % 2 lf 1011,7 hPa 0,0 l/m 0 min 2 min 244 W/m 29,3 km/h (5 Bft) 100,00 %
30.06.2016 17:14 21,4 C 22,2 C 21,1 C 75 % 0 lf 1011,7 hPa 0,0 l/m 0 min 0 min 254 W/m 23,0 km/h (4 Bft) 100,00 %
30.06.2016 17:16 21,3 C 22,2 C 21,1 C 75 % 0 lf 1011,7 hPa 0,0 l/m 0 min 0 min 234 W/m 20,9 km/h (4 Bft) 95,74 %
30.06.2016 17:18 21,3 C 22,2 C 21,1 C 74 % 0 lf 1011,7 hPa 0,0 l/m 0 min 0 min 207 W/m 25,1 km/h (4 Bft) 100,00 %
30.06.2016 17:20 21,2 C 22,2 C 21,1 C 75 % 0 lf 1011,8 hPa 0,0 l/m 0 min 0 min 165 W/m 23,0 km/h (4 Bft) 100,00 %
30.06.2016 17:22 21,2 C 21,7 C 20,6 C 75 % 0 lf 1011,7 hPa 0,0 l/m 0 min 0 min 141 W/m 18,8 km/h (3 Bft) 97,83 %
30.06.2016 17:24 21,2 C 21,7 C 20,6 C 75 % 0 lf 1011,7 hPa 0,0 l/m 0 min 0 min 130 W/m 16,7 km/h (3 Bft) 95,74 %
30.06.2016 17:26 21,1 C 21,7 C 20,6 C 76 % 0 lf 1011,7 hPa 0,0 l/m 0 min 0 min 118 W/m 16,7 km/h (3 Bft) 91,49 %
30.06.2016 17:28 21,1 C 21,1 C 20,6 C 75 % 0 lf 1011,8 hPa 0,0 l/m 0 min 0 min 105 W/m 16,7 km/h (3 Bft) 97,87 %
30.06.2016 17:30 21,1 C 21,1 C 20,0 C 76 % 0 lf 1011,8 hPa 0,0 l/m 0 min 0 min 85 W/m 14,6 km/h (3 Bft) 93,62 %
30.06.2016 17:32 21,0 C 21,1 C 20,0 C 76 % 0 lf 1011,8 hPa 0,0 l/m 0 min 0 min 66 W/m 16,7 km/h (3 Bft) 97,83 %
30.06.2016 17:34 21,0 C 20,6 C 19,4 C 76 % 0 lf 1011,8 hPa 0,0 l/m 0 min 0 min 57 W/m 18,8 km/h (3 Bft) 95,74 %
30.06.2016 17:36 20,9 C 20,6 C 19,4 C 76 % 1 lf 1011,8 hPa 0,0 l/m 0 min 2 min 60 W/m 14,6 km/h (3 Bft) 96,23 %
30.06.2016 17:38 20,8 C 20,0 C 18,9 C 77 % 0 lf 1011,8 hPa 0,0 l/m 0 min 2 min 78 W/m 23,0 km/h (4 Bft) 95,74 %
30.06.2016 17:40 20,8 C 20,6 C 18,9 C 77 % 0 lf 1011,8 hPa 0,0 l/m 0 min 2 min 134 W/m 12,6 km/h (3 Bft) 93,62 %
30.06.2016 17:42 20,8 C 21,7 C 20,0 C 78 % 0 lf 1011,8 hPa 0,0 l/m 2 min 0 min 292 W/m 23,0 km/h (4 Bft) 93,62 %
30.06.2016 17:44 20,8 C 22,8 C 21,1 C 78 % 0 lf 1011,8 hPa 0,0 l/m 2 min 0 min 434 W/m 14,6 km/h (3 Bft) 95,65 %
30.06.2016 17:46 20,8 C 23,9 C 22,2 C 79 % 0 lf 1011,7 hPa 0,0 l/m 2 min 0 min 791 W/m 12,6 km/h (3 Bft) 93,62 %
30.06.2016 17:48 20,8 C 24,4 C 22,8 C 79 % 0 lf 1011,6 hPa 0,0 l/m 2 min 0 min 738 W/m 12,6 km/h (3 Bft) 93,62 %
30.06.2016 17:50 20,9 C 23,9 C 22,8 C 79 % 0 lf 1011,6 hPa 0,0 l/m 2 min 0 min 668 W/m 14,6 km/h (3 Bft) 93,62 %
30.06.2016 17:52 21,0 C 23,9 C 22,8 C 79 % 0 lf 1011,6 hPa 0,0 l/m 2 min 0 min 393 W/m 16,7 km/h (3 Bft) 91,49 %
30.06.2016 17:54 21,1 C 23,9 C 22,8 C 79 % 0 lf 1011,7 hPa 0,0 l/m 2 min 0 min 489 W/m 14,6 km/h (3 Bft) 95,74 %
30.06.2016 17:56 21,1 C 23,3 C 22,8 C 79 % 0 lf 1011,6 hPa 0,0 l/m 2 min 0 min 349 W/m 16,7 km/h (3 Bft) 95,65 %
30.06.2016 17:58 21,2 C 22,8 C 22,2 C 78 % 0 lf 1011,7 hPa 0,0 l/m 0 min 0 min 257 W/m 29,3 km/h (5 Bft) 93,62 %
30.06.2016 18:00 21,2 C 22,8 C 21,7 C 77 % 0 lf 1011,7 hPa 0,0 l/m 0 min 0 min 229 W/m 23,0 km/h (4 Bft) 93,18 %
30.06.2016 18:02 21,2 C 22,8 C 21,7 C 77 % 0 lf 1011,8 hPa 0,0 l/m 0 min 0 min 222 W/m 20,9 km/h (4 Bft) 94,00 %
30.06.2016 18:04 21,3 C 22,8 C 21,7 C 77 % 0 lf 1011,8 hPa 0,0 l/m 0 min 0 min 238 W/m 16,7 km/h (3 Bft) 91,67 %
30.06.2016 18:06 21,3 C 22,8 C 21,7 C 77 % 0 lf 1011,6 hPa 0,0 l/m 2 min 0 min 290 W/m 27,2 km/h (4 Bft) 91,84 %
30.06.2016 18:08 21,3 C 22,2 C 21,7 C 77 % 0 lf 1011,7 hPa 0,0 l/m 2 min 0 min 421 W/m 25,1 km/h (4 Bft) 93,62 %
30.06.2016 18:10 21,3 C 22,2 C 21,7 C 77 % 0 lf 1011,6 hPa 0,0 l/m 2 min 0 min 275 W/m 16,7 km/h (3 Bft) 93,48 %
30.06.2016 18:12 21,3 C 22,2 C 21,7 C 77 % 0 lf 1011,6 hPa 0,0 l/m 0 min 0 min 206 W/m 20,9 km/h (4 Bft) 93,62 %
30.06.2016 18:14 21,2 C 22,2 C 21,1 C 77 % 0 lf 1011,6 hPa 0,0 l/m 0 min 0 min 161 W/m 18,8 km/h (3 Bft) 95,74 %
30.06.2016 18:16 21,2 C 22,2 C 21,1 C 77 % 0 lf 1011,6 hPa 0,0 l/m 0 min 0 min 144 W/m 12,6 km/h (3 Bft) 93,62 %
30.06.2016 18:18 21,2 C 21,7 C 21,1 C 77 % 0 lf 1011,5 hPa 0,0 l/m 0 min 0 min 160 W/m 14,6 km/h (3 Bft) 97,87 %
30.06.2016 18:20 21,2 C 22,2 C 20,6 C 77 % 0 lf 1011,5 hPa 0,0 l/m 0 min 0 min 218 W/m 18,8 km/h (3 Bft) 97,83 %
30.06.2016 18:22 21,2 C 22,2 C 21,1 C 77 % 0 lf 1011,5 hPa 0,0 l/m 2 min 0 min 313 W/m 20,9 km/h (4 Bft) 95,74 %
30.06.2016 18:24 21,2 C 22,8 C 21,1 C 78 % 0 lf 1011,4 hPa 0,0 l/m 2 min 0 min 383 W/m 16,7 km/h (3 Bft) 91,49 %
30.06.2016 18:26 21,2 C 22,2 C 21,7 C 78 % 0 lf 1011,4 hPa 0,0 l/m 0 min 0 min 229 W/m 20,9 km/h (4 Bft) 97,87 %
30.06.2016 18:28 21,1 C 22,2 C 21,1 C 78 % 0 lf 1011,4 hPa 0,0 l/m 0 min 0 min 161 W/m 16,7 km/h (3 Bft) 97,87 %
30.06.2016 18:30 21,1 C 21,7 C 21,1 C 78 % 0 lf 1011,5 hPa 0,0 l/m 0 min 0 min 136 W/m 16,7 km/h (3 Bft) 97,87 %
30.06.2016 18:32 21,1 C 21,7 C 21,1 C 78 % 0 lf 1011,4 hPa 0,0 l/m 0 min 0 min 142 W/m 16,7 km/h (3 Bft) 97,83 %
30.06.2016 18:34 21,1 C 22,2 C 21,1 C 78 % 0 lf 1011,5 hPa 0,0 l/m 0 min 0 min 154 W/m 16,7 km/h (3 Bft) 93,62 %
30.06.2016 18:36 21,1 C 22,2 C 21,1 C 78 % 0 lf 1011,5 hPa 0,0 l/m 0 min 0 min 170 W/m 20,9 km/h (4 Bft) 98,11 %
30.06.2016 18:38 21,1 C 22,2 C 21,1 C 78 % 0 lf 1011,4 hPa 0,0 l/m 0 min 0 min 185 W/m 16,7 km/h (3 Bft) 97,87 %
30.06.2016 18:40 21,1 C 22,2 C 21,7 C 78 % 0 lf 1011,4 hPa 0,0 l/m 0 min 0 min 191 W/m 16,7 km/h (3 Bft) 95,74 %
30.06.2016 18:42 21,1 C 22,2 C 21,1 C 79 % 0 lf 1011,3 hPa 0,0 l/m 0 min 0 min 179 W/m 14,6 km/h (3 Bft) 93,62 %
30.06.2016 18:44 21,1 C 22,2 C 21,1 C 79 % 0 lf 1011,3 hPa 0,0 l/m 0 min 0 min 151 W/m 16,7 km/h (3 Bft) 93,48 %
30.06.2016 18:46 21,1 C 21,7 C 21,1 C 79 % 0 lf 1011,3 hPa 0,0 l/m 0 min 0 min 127 W/m 16,7 km/h (3 Bft) 93,62 %
30.06.2016 18:48 21,1 C 21,7 C 20,6 C 79 % 0 lf 1011,4 hPa 0,0 l/m 0 min 0 min 103 W/m 16,7 km/h (3 Bft) 95,74 %
30.06.2016 18:50 21,0 C 21,1 C 20,6 C 79 % 0 lf 1011,5 hPa 0,0 l/m 0 min 0 min 79 W/m 14,6 km/h (3 Bft) 93,62 %
30.06.2016 18:52 21,0 C 21,1 C 20,0 C 79 % 0 lf 1011,4 hPa 0,0 l/m 0 min 0 min 64 W/m 12,6 km/h (3 Bft) 95,74 %
30.06.2016 18:54 21,0 C 21,1 C 20,0 C 78 % 0 lf 1011,5 hPa 0,0 l/m 0 min 0 min 54 W/m 18,8 km/h (3 Bft) 97,87 %
30.06.2016 18:56 20,9 C 20,6 C 19,4 C 78 % 0 lf 1011,4 hPa 0,0 l/m 0 min 0 min 51 W/m 14,6 km/h (3 Bft) 97,83 %
30.06.2016 18:58 20,9 C 20,6 C 19,4 C 78 % 0 lf 1011,4 hPa 0,0 l/m 0 min 0 min 53 W/m 14,6 km/h (3 Bft) 95,74 %
30.06.2016 19:00 20,9 C 20,6 C 19,4 C 79 % 0 lf 1011,4 hPa 0,0 l/m 0 min 0 min 51 W/m 12,6 km/h (3 Bft) 97,73 %
30.06.2016 19:02 20,8 C 20,6 C 19,4 C 79 % 0 lf 1011,4 hPa 0,0 l/m 0 min 0 min 51 W/m 16,7 km/h (3 Bft) 96,00 %
30.06.2016 19:04 20,8 C 20,6 C 19,4 C 79 % 0 lf 1011,5 hPa 0,0 l/m 0 min 0 min 57 W/m 14,6 km/h (3 Bft) 97,92 %
30.06.2016 19:06 20,8 C 20,6 C 18,9 C 79 % 0 lf 1011,4 hPa 0,0 l/m 0 min 2 min 58 W/m 20,9 km/h (4 Bft) 97,92 %
30.06.2016 19:08 20,7 C 20,6 C 18,9 C 80 % 0 lf 1011,4 hPa 0,0 l/m 0 min 2 min 67 W/m 14,6 km/h (3 Bft) 95,74 %
30.06.2016 19:10 20,7 C 20,0 C 18,9 C 80 % 0 lf 1011,4 hPa 0,0 l/m 0 min 2 min 66 W/m 18,8 km/h (3 Bft) 95,74 %
30.06.2016 19:12 20,7 C 20,0 C 18,9 C 80 % 0 lf 1011,5 hPa 0,0 l/m 0 min 0 min 46 W/m 14,6 km/h (3 Bft) 97,87 %
30.06.2016 19:14 20,6 C 20,0 C 18,9 C 80 % 0 lf 1011,5 hPa 0,0 l/m 0 min 0 min 44 W/m 20,9 km/h (4 Bft) 95,74 %
30.06.2016 19:16 20,5 C 20,0 C 18,3 C 81 % 0 lf 1011,4 hPa 0,0 l/m 0 min 2 min 64 W/m 25,1 km/h (4 Bft) 97,87 %
30.06.2016 19:18 20,5 C 20,0 C 18,9 C 81 % 0 lf 1011,4 hPa 0,0 l/m 0 min 2 min 85 W/m 25,1 km/h (4 Bft) 95,65 %
30.06.2016 19:20 20,4 C 20,6 C 18,9 C 81 % 0 lf 1011,4 hPa 0,0 l/m 0 min 0 min 92 W/m 14,6 km/h (3 Bft) 95,74 %
30.06.2016 19:22 20,4 C 20,6 C 18,9 C 82 % 0 lf 1011,4 hPa 0,0 l/m 0 min 0 min 90 W/m 14,6 km/h (3 Bft) 95,74 %
30.06.2016 19:24 20,4 C 20,6 C 19,4 C 82 % 0 lf 1011,4 hPa 0,0 l/m 0 min 0 min 80 W/m 8,4 km/h (2 Bft) 97,87 %
30.06.2016 19:26 20,4 C 20,6 C 19,4 C 82 % 0 lf 1011,4 hPa 0,0 l/m 0 min 0 min 66 W/m 14,6 km/h (3 Bft) 100,00 %
30.06.2016 19:28 20,4 C 20,6 C 18,9 C 82 % 0 lf 1011,4 hPa 0,0 l/m 0 min 0 min 58 W/m 12,6 km/h (3 Bft) 93,48 %
30.06.2016 19:30 20,3 C 20,6 C 18,9 C 82 % 0 lf 1011,4 hPa 0,0 l/m 0 min 0 min 48 W/m 6,3 km/h (2 Bft) 100,00 %
30.06.2016 19:32 20,3 C 20,0 C 18,9 C 82 % 0 lf 1011,3 hPa 0,0 l/m 0 min 0 min 47 W/m 8,4 km/h (2 Bft) 97,14 %
30.06.2016 19:34 20,3 C 20,0 C 18,9 C 83 % 0 lf 1011,3 hPa 0,0 l/m 0 min 0 min 50 W/m 10,5 km/h (2 Bft) 97,87 %
30.06.2016 19:36 20,3 C 20,0 C 18,9 C 83 % 0 lf 1011,3 hPa 0,0 l/m 0 min 0 min 55 W/m 12,6 km/h (3 Bft) 100,00 %
30.06.2016 19:38 20,2 C 20,0 C 18,9 C 83 % 0 lf 1011,3 hPa 0,0 l/m 0 min 2 min 66 W/m 14,6 km/h (3 Bft) 97,87 %
30.06.2016 19:40 20,2 C 20,0 C 18,9 C 83 % 0 lf 1011,3 hPa 0,0 l/m 0 min 2 min 72 W/m 8,4 km/h (2 Bft) 95,74 %
30.06.2016 19:42 20,2 C 20,0 C 18,9 C 83 % 3 lf 1011,4 hPa 0,0 l/m 0 min 2 min 73 W/m 10,5 km/h (2 Bft) 95,74 %
30.06.2016 19:44 20,2 C 20,0 C 18,9 C 83 % 0 lf 1011,4 hPa 0,0 l/m 0 min 2 min 73 W/m 10,5 km/h (2 Bft) 95,65 %
30.06.2016 19:46 20,2 C 20,0 C 18,9 C 84 % 2 lf 1011,4 hPa 0,0 l/m 0 min 2 min 65 W/m 6,3 km/h (2 Bft) 93,62 %
30.06.2016 19:48 20,2 C 20,0 C 18,3 C 84 % 1 lf 1011,4 hPa 0,0 l/m 0 min 2 min 59 W/m 8,4 km/h (2 Bft) 95,74 %
30.06.2016 19:50 20,2 C 20,0 C 18,3 C 84 % 1 lf 1011,4 hPa 0,0 l/m 0 min 2 min 54 W/m 10,5 km/h (2 Bft) 93,62 %
30.06.2016 19:52 20,2 C 20,0 C 18,3 C 84 % 0 lf 1011,3 hPa 0,0 l/m 0 min 2 min 51 W/m 8,4 km/h (2 Bft) 97,87 %
30.06.2016 19:54 20,1 C 20,0 C 17,8 C 84 % 1 lf 1011,3 hPa 0,0 l/m 0 min 2 min 44 W/m 10,5 km/h (2 Bft) 97,83 %
30.06.2016 19:56 20,1 C 19,4 C 17,8 C 84 % 0 lf 1011,4 hPa 0,0 l/m 0 min 2 min 34 W/m 12,6 km/h (3 Bft) 97,87 %
30.06.2016 19:58 20,1 C 19,4 C 17,8 C 85 % 0 lf 1011,5 hPa 0,0 l/m 0 min 2 min 30 W/m 10,5 km/h (2 Bft) 95,74 %
30.06.2016 20:00 20,1 C 19,4 C 17,8 C 85 % 0 lf 1011,4 hPa 0,0 l/m 0 min 2 min 35 W/m 12,6 km/h (3 Bft) 98,00 %
30.06.2016 20:02 20,1 C 19,4 C 17,8 C 85 % 0 lf 1011,4 hPa 0,0 l/m 0 min 0 min 40 W/m 8,4 km/h (2 Bft) 98,00 %
30.06.2016 20:04 20,1 C 19,4 C 17,8 C 85 % 0 lf 1011,5 hPa 0,0 l/m 0 min 2 min 46 W/m 10,5 km/h (2 Bft) 95,74 %
30.06.2016 20:06 20,0 C 20,0 C 17,8 C 85 % 13 lf 1011,5 hPa 0,0 l/m 0 min 2 min 60 W/m 6,3 km/h (2 Bft) 97,96 %
30.06.2016 20:08 20,0 C 19,4 C 17,8 C 85 % 14 lf 1011,6 hPa 0,0 l/m 0 min 2 min 77 W/m 4,2 km/h (1 Bft) 95,74 %
30.06.2016 20:10 20,0 C 19,4 C 17,8 C 85 % 14 lf 1011,6 hPa 0,0 l/m 0 min 2 min 103 W/m 10,5 km/h (2 Bft) 97,87 %
30.06.2016 20:12 20,0 C 20,0 C 17,8 C 86 % 13 lf 1011,6 hPa 0,0 l/m 2 min 0 min 120 W/m 14,6 km/h (3 Bft) 95,74 %
30.06.2016 20:14 19,9 C 20,0 C 18,3 C 86 % 12 lf 1011,6 hPa 0,0 l/m 2 min 0 min 116 W/m 10,5 km/h (2 Bft) 100,00 %
30.06.2016 20:16 19,9 C 20,6 C 18,3 C 86 % 8 lf 1011,6 hPa 0,0 l/m 2 min 0 min 107 W/m 8,4 km/h (2 Bft) 100,00 %
30.06.2016 20:18 20,0 C 20,6 C 18,3 C 86 % 7 lf 1011,6 hPa 0,0 l/m 2 min 2 min 103 W/m 8,4 km/h (2 Bft) 100,00 %
30.06.2016 20:20 20,0 C 20,6 C 18,3 C 87 % 10 lf 1011,7 hPa 0,0 l/m 0 min 2 min 81 W/m 14,6 km/h (3 Bft) 100,00 %
30.06.2016 20:22 19,9 C 20,0 C 17,8 C 87 % 15 lf 1011,6 hPa 0,2 l/m 0 min 2 min 57 W/m 8,4 km/h (2 Bft) 100,00 %
30.06.2016 20:24 20,0 C 19,4 C 17,8 C 87 % 15 lf 1011,7 hPa 0,0 l/m 0 min 2 min 45 W/m 14,6 km/h (3 Bft) 95,74 %
30.06.2016 20:26 19,9 C 18,9 C 17,2 C 87 % 15 lf 1011,7 hPa 0,0 l/m 0 min 2 min 56 W/m 12,6 km/h (3 Bft) 100,00 %
30.06.2016 20:28 19,9 C 18,9 C 17,2 C 87 % 15 lf 1011,7 hPa 0,0 l/m 0 min 0 min 62 W/m 14,6 km/h (3 Bft) 100,00 %
30.06.2016 20:30 19,9 C 18,9 C 17,2 C 87 % 15 lf 1011,7 hPa 0,0 l/m 0 min 0 min 57 W/m 8,4 km/h (2 Bft) 100,00 %
30.06.2016 20:32 19,9 C 18,9 C 17,2 C 88 % 15 lf 1011,7 hPa 0,0 l/m 0 min 0 min 47 W/m 12,6 km/h (3 Bft) 97,87 %
30.06.2016 20:34 19,8 C 18,9 C 17,2 C 88 % 15 lf 1011,7 hPa 0,0 l/m 0 min 0 min 41 W/m 12,6 km/h (3 Bft) 97,87 %
30.06.2016 20:36 19,8 C 18,9 C 17,2 C 88 % 15 lf 1011,8 hPa 0,0 l/m 0 min 0 min 48 W/m 6,3 km/h (2 Bft) 97,87 %
30.06.2016 20:38 19,8 C 18,9 C 17,2 C 88 % 15 lf 1011,8 hPa 0,0 l/m 0 min 0 min 53 W/m 10,5 km/h (2 Bft) 97,87 %
30.06.2016 20:40 19,8 C 18,9 C 17,2 C 88 % 15 lf 1011,7 hPa 0,0 l/m 0 min 0 min 57 W/m 10,5 km/h (2 Bft) 100,00 %
30.06.2016 20:42 19,7 C 18,9 C 17,2 C 88 % 15 lf 1011,8 hPa 0,0 l/m 0 min 2 min 54 W/m 12,6 km/h (3 Bft) 100,00 %
30.06.2016 20:44 19,7 C 18,9 C 17,2 C 88 % 14 lf 1011,7 hPa 0,0 l/m 0 min 0 min 59 W/m 6,3 km/h (2 Bft) 100,00 %
30.06.2016 20:46 19,6 C 18,9 C 17,2 C 88 % 13 lf 1011,7 hPa 0,0 l/m 0 min 0 min 54 W/m 10,5 km/h (2 Bft) 97,87 %
30.06.2016 20:48 19,6 C 18,9 C 17,2 C 89 % 11 lf 1011,7 hPa 0,0 l/m 0 min 0 min 39 W/m 8,4 km/h (2 Bft) 95,74 %
30.06.2016 20:50 19,6 C 18,9 C 17,2 C 89 % 9 lf 1011,7 hPa 0,0 l/m 0 min 0 min 28 W/m 8,4 km/h (2 Bft) 93,62 %
30.06.2016 20:52 19,5 C 18,9 C 17,2 C 89 % 6 lf 1011,7 hPa 0,0 l/m 0 min 0 min 22 W/m 8,4 km/h (2 Bft) 97,83 %
30.06.2016 20:54 19,5 C 18,9 C 17,2 C 89 % 4 lf 1011,7 hPa 0,0 l/m 0 min 0 min 21 W/m 8,4 km/h (2 Bft) 91,67 %
30.06.2016 20:56 19,4 C 18,9 C 17,2 C 89 % 2 lf 1011,7 hPa 0,0 l/m 0 min 0 min 24 W/m 18,8 km/h (3 Bft) 97,83 %
30.06.2016 20:58 19,4 C 18,9 C 17,2 C 89 % 0 lf 1011,7 hPa 0,0 l/m 0 min 0 min 26 W/m 14,6 km/h (3 Bft) 95,74 %
30.06.2016 21:00 19,4 C 18,9 C 17,2 C 89 % 0 lf 1011,7 hPa 0,0 l/m 0 min 0 min 25 W/m 8,4 km/h (2 Bft) 98,00 %
30.06.2016 21:02 19,3 C 18,9 C 17,2 C 89 % 0 lf 1011,7 hPa 0,0 l/m 0 min 0 min 21 W/m 14,6 km/h (3 Bft) 98,00 %
30.06.2016 21:04 19,3 C 18,9 C 17,2 C 89 % 0 lf 1011,8 hPa 0,0 l/m 0 min 0 min 18 W/m 14,6 km/h (3 Bft) 95,74 %
30.06.2016 21:06 19,2 C 18,9 C 17,2 C 89 % 3 lf 1011,7 hPa 0,0 l/m 0 min 2 min 16 W/m 14,6 km/h (3 Bft) 91,84 %
30.06.2016 21:08 19,2 C 18,3 C 17,2 C 89 % 3 lf 1011,7 hPa 0,0 l/m 0 min 2 min 16 W/m 20,9 km/h (4 Bft) 93,62 %
30.06.2016 21:10 19,1 C 18,3 C 16,7 C 89 % 1 lf 1011,6 hPa 0,0 l/m 0 min 2 min 20 W/m 18,8 km/h (3 Bft) 91,49 %
30.06.2016 21:12 19,1 C 18,3 C 16,7 C 90 % 1 lf 1011,6 hPa 0,0 l/m 0 min 2 min 23 W/m 16,7 km/h (3 Bft) 95,74 %
30.06.2016 21:14 19,1 C 18,3 C 16,7 C 90 % 0 lf 1011,6 hPa 0,0 l/m 0 min 2 min 25 W/m 23,0 km/h (4 Bft) 95,74 %
30.06.2016 21:16 19,0 C 18,3 C 16,7 C 89 % 0 lf 1011,7 hPa 0,0 l/m 0 min 0 min 25 W/m 25,1 km/h (4 Bft) 95,65 %
30.06.2016 21:18 19,0 C 18,9 C 16,7 C 89 % 0 lf 1011,6 hPa 0,0 l/m 0 min 0 min 23 W/m 18,8 km/h (3 Bft) 93,62 %
30.06.2016 21:20 18,9 C 18,9 C 16,7 C 89 % 0 lf 1011,7 hPa 0,0 l/m 0 min 0 min 19 W/m 27,2 km/h (4 Bft) 95,74 %
30.06.2016 21:22 18,9 C 18,9 C 16,7 C 89 % 0 lf 1011,6 hPa 0,0 l/m 0 min 0 min 18 W/m 18,8 km/h (3 Bft) 95,74 %
30.06.2016 21:24 18,9 C 18,9 C 16,7 C 89 % 0 lf 1011,7 hPa 0,0 l/m 0 min 0 min 18 W/m 18,8 km/h (3 Bft) 95,74 %
30.06.2016 21:26 18,9 C 18,9 C 16,7 C 89 % 0 lf 1011,6 hPa 0,0 l/m 0 min 0 min 16 W/m 18,8 km/h (3 Bft) 91,30 %
30.06.2016 21:28 18,8 C 18,9 C 16,7 C 89 % 0 lf 1011,7 hPa 0,0 l/m 0 min 0 min 14 W/m 25,1 km/h (4 Bft) 91,49 %
30.06.2016 21:30 18,8 C 18,9 C 16,7 C 90 % 0 lf 1011,7 hPa 0,0 l/m 0 min 2 min 12 W/m 20,9 km/h (4 Bft) 93,62 %
30.06.2016 21:32 18,8 C 18,9 C 16,7 C 90 % 0 lf 1011,7 hPa 0,0 l/m 0 min 0 min 12 W/m 14,6 km/h (3 Bft) 91,49 %
30.06.2016 21:34 18,8 C 18,9 C 16,7 C 90 % 0 lf 1011,8 hPa 0,0 l/m 0 min 0 min 10 W/m 10,5 km/h (2 Bft) 91,49 %
30.06.2016 21:36 18,8 C 18,3 C 16,7 C 90 % 0 lf 1011,8 hPa 0,0 l/m 0 min 0 min 8 W/m 14,6 km/h (3 Bft) 92,59 %
30.06.2016 21:38 18,8 C 18,3 C 16,7 C 90 % 0 lf 1011,9 hPa 0,0 l/m 0 min 0 min 7 W/m 18,8 km/h (3 Bft) 86,96 %
30.06.2016 21:40 18,8 C 18,3 C 16,7 C 90 % 0 lf 1011,9 hPa 0,0 l/m 0 min 0 min 7 W/m 16,7 km/h (3 Bft) 91,67 %
30.06.2016 21:42 18,8 C 18,3 C 16,7 C 90 % 0 lf 1012,0 hPa 0,0 l/m 0 min 0 min 6 W/m 14,6 km/h (3 Bft) 88,52 %
30.06.2016 21:44 18,7 C 18,3 C 16,7 C 90 % 0 lf 1012,0 hPa 0,0 l/m 0 min 0 min 5 W/m 16,7 km/h (3 Bft) 87,23 %
30.06.2016 21:46 18,7 C 18,3 C 16,7 C 90 % 0 lf 1012,0 hPa 0,0 l/m 0 min 0 min 5 W/m 18,8 km/h (3 Bft) 89,36 %
30.06.2016 21:48 18,7 C 18,3 C 16,7 C 90 % 0 lf 1012,1 hPa 0,0 l/m 0 min 0 min 5 W/m 14,6 km/h (3 Bft) 91,49 %
30.06.2016 21:50 18,7 C 18,3 C 16,7 C 90 % 0 lf 1012,0 hPa 0,0 l/m 0 min 0 min 5 W/m 14,6 km/h (3 Bft) 91,49 %
30.06.2016 21:52 18,7 C 18,3 C 16,7 C 90 % 0 lf 1012,1 hPa 0,0 l/m 0 min 0 min 5 W/m 20,9 km/h (4 Bft) 89,13 %
30.06.2016 21:54 18,7 C 18,3 C 17,2 C 90 % 0 lf 1012,1 hPa 0,0 l/m 0 min 0 min 5 W/m 14,6 km/h (3 Bft) 91,49 %
30.06.2016 21:56 18,7 C 18,3 C 16,7 C 90 % 0 lf 1012,1 hPa 0,0 l/m 0 min 0 min 5 W/m 14,6 km/h (3 Bft) 95,83 %
30.06.2016 21:58 18,7 C 18,3 C 16,7 C 90 % 0 lf 1012,1 hPa 0,0 l/m 0 min 0 min 2 W/m 16,7 km/h (3 Bft) 93,62 %
30.06.2016 22:00 18,7 C 18,3 C 16,7 C 90 % 0 lf 1012,1 hPa 0,0 l/m 0 min 0 min 0 W/m 20,9 km/h (4 Bft) 89,36 %
30.06.2016 22:02 18,6 C 18,3 C 16,7 C 90 % 0 lf 1012,2 hPa 0,0 l/m 0 min 0 min 0 W/m 25,1 km/h (4 Bft) 97,62 %
30.06.2016 22:04 18,6 C 18,3 C 16,7 C 90 % 0 lf 1012,2 hPa 0,0 l/m 0 min 0 min 0 W/m 14,6 km/h (3 Bft) 93,88 %
30.06.2016 22:06 18,6 C 18,3 C 16,7 C 90 % 0 lf 1012,2 hPa 0,0 l/m 0 min 0 min 0 W/m 16,7 km/h (3 Bft) 95,74 %
30.06.2016 22:08 18,6 C 18,3 C 16,7 C 90 % 0 lf 1012,2 hPa 0,0 l/m 0 min 0 min 0 W/m 18,8 km/h (3 Bft) 97,87 %
30.06.2016 22:10 18,6 C 18,3 C 16,7 C 90 % 0 lf 1012,2 hPa 0,0 l/m 0 min 0 min 0 W/m 20,9 km/h (4 Bft) 95,74 %
30.06.2016 22:12 18,6 C 18,3 C 17,2 C 90 % 0 lf 1012,3 hPa 0,0 l/m 0 min 0 min 0 W/m 27,2 km/h (4 Bft) 93,62 %
30.06.2016 22:14 18,6 C 18,3 C 17,2 C 90 % 0 lf 1012,3 hPa 0,0 l/m 0 min 0 min 0 W/m 18,8 km/h (3 Bft) 100,00 %
30.06.2016 22:16 18,6 C 18,3 C 17,2 C 90 % 0 lf 1012,3 hPa 0,0 l/m 0 min 0 min 0 W/m 16,7 km/h (3 Bft) 93,62 %
30.06.2016 22:18 18,6 C 18,3 C 17,2 C 90 % 0 lf 1012,3 hPa 0,0 l/m 0 min 0 min 0 W/m 20,9 km/h (4 Bft) 97,87 %
30.06.2016 22:20 18,5 C 18,3 C 17,2 C 90 % 0 lf 1012,4 hPa 0,0 l/m 0 min 0 min 0 W/m 16,7 km/h (3 Bft) 100,00 %
30.06.2016 22:22 18,5 C 18,3 C 17,2 C 90 % 0 lf 1012,3 hPa 0,0 l/m 0 min 0 min 0 W/m 18,8 km/h (3 Bft) 100,00 %
30.06.2016 22:24 18,5 C 18,3 C 17,2 C 90 % 0 lf 1012,4 hPa 0,0 l/m 0 min 0 min 0 W/m 14,6 km/h (3 Bft) 95,74 %
30.06.2016 22:26 18,5 C 18,3 C 17,2 C 90 % 0 lf 1012,3 hPa 0,0 l/m 0 min 0 min 0 W/m 20,9 km/h (4 Bft) 100,00 %
30.06.2016 22:28 18,5 C 18,3 C 17,2 C 90 % 0 lf 1012,4 hPa 0,0 l/m 0 min 0 min 0 W/m 16,7 km/h (3 Bft) 93,62 %
30.06.2016 22:30 18,5 C 18,3 C 17,2 C 90 % 0 lf 1012,4 hPa 0,0 l/m 0 min 0 min 0 W/m 14,6 km/h (3 Bft) 95,74 %
30.06.2016 22:32 18,5 C 18,3 C 17,2 C 90 % 0 lf 1012,4 hPa 0,0 l/m 0 min 0 min 0 W/m 16,7 km/h (3 Bft) 98,11 %
30.06.2016 22:34 18,5 C 18,3 C 16,7 C 90 % 0 lf 1012,3 hPa 0,0 l/m 0 min 0 min 0 W/m 14,6 km/h (3 Bft) 100,00 %
30.06.2016 22:36 18,5 C 18,3 C 16,7 C 90 % 0 lf 1012,4 hPa 0,0 l/m 0 min 0 min 0 W/m 12,6 km/h (3 Bft) 94,00 %
30.06.2016 22:38 18,5 C 18,3 C 16,7 C 90 % 0 lf 1012,4 hPa 0,0 l/m 0 min 0 min 0 W/m 20,9 km/h (4 Bft) 100,00 %
30.06.2016 22:40 18,5 C 18,3 C 16,7 C 90 % 0 lf 1012,4 hPa 0,0 l/m 0 min 0 min 0 W/m 16,7 km/h (3 Bft) 97,87 %
30.06.2016 22:42 18,5 C 18,3 C 16,7 C 90 % 0 lf 1012,3 hPa 0,0 l/m 0 min 0 min 0 W/m 14,6 km/h (3 Bft) 100,00 %
30.06.2016 22:44 18,4 C 18,3 C 16,7 C 90 % 0 lf 1012,4 hPa 0,0 l/m 0 min 0 min 0 W/m 14,6 km/h (3 Bft) 100,00 %
30.06.2016 22:46 18,4 C 18,3 C 16,7 C 90 % 0 lf 1012,3 hPa 0,0 l/m 0 min 0 min 0 W/m 14,6 km/h (3 Bft) 100,00 %
30.06.2016 22:48 18,4 C 18,3 C 16,7 C 90 % 0 lf 1012,3 hPa 0,0 l/m 0 min 0 min 0 W/m 16,7 km/h (3 Bft) 100,00 %
30.06.2016 22:50 18,4 C 18,3 C 16,7 C 90 % 0 lf 1012,3 hPa 0,0 l/m 0 min 0 min 0 W/m 10,5 km/h (2 Bft) 97,87 %
30.06.2016 22:52 18,4 C 18,3 C 16,7 C 90 % 0 lf 1012,4 hPa 0,0 l/m 0 min 0 min 0 W/m 16,7 km/h (3 Bft) 100,00 %
30.06.2016 22:54 18,4 C 18,3 C 16,7 C 90 % 0 lf 1012,4 hPa 0,0 l/m 0 min 0 min 0 W/m 14,6 km/h (3 Bft) 100,00 %
30.06.2016 22:56 18,4 C 18,3 C 16,7 C 90 % 0 lf 1012,4 hPa 0,0 l/m 0 min 0 min 0 W/m 16,7 km/h (3 Bft) 97,87 %
30.06.2016 22:58 18,4 C 18,3 C 16,7 C 90 % 0 lf 1012,4 hPa 0,0 l/m 0 min 0 min 0 W/m 12,6 km/h (3 Bft) 95,74 %
30.06.2016 23:00 18,4 C 18,3 C 16,7 C 90 % 0 lf 1012,4 hPa 0,0 l/m 0 min 0 min 0 W/m 16,7 km/h (3 Bft) 97,83 %
30.06.2016 23:02 18,4 C 18,3 C 16,7 C 90 % 0 lf 1012,5 hPa 0,0 l/m 0 min 0 min 0 W/m 12,6 km/h (3 Bft) 100,00 %
30.06.2016 23:04 18,3 C 18,3 C 16,7 C 90 % 0 lf 1012,4 hPa 0,0 l/m 0 min 0 min 0 W/m 20,9 km/h (4 Bft) 100,00 %
30.06.2016 23:06 18,3 C 17,8 C 16,7 C 90 % 0 lf 1012,4 hPa 0,0 l/m 0 min 0 min 0 W/m 12,6 km/h (3 Bft) 100,00 %
30.06.2016 23:08 18,3 C 17,8 C 16,1 C 90 % 0 lf 1012,4 hPa 0,0 l/m 0 min 0 min 0 W/m 18,8 km/h (3 Bft) 97,87 %
30.06.2016 23:10 18,3 C 17,8 C 16,1 C 90 % 0 lf 1012,5 hPa 0,0 l/m 0 min 0 min 0 W/m 8,4 km/h (2 Bft) 100,00 %
30.06.2016 23:12 18,3 C 17,8 C 16,1 C 90 % 0 lf 1012,5 hPa 0,0 l/m 0 min 0 min 0 W/m 14,6 km/h (3 Bft) 100,00 %
30.06.2016 23:14 18,3 C 17,8 C 16,1 C 90 % 0 lf 1012,5 hPa 0,0 l/m 0 min 0 min 0 W/m 14,6 km/h (3 Bft) 95,74 %
30.06.2016 23:16 18,2 C 17,8 C 16,1 C 90 % 0 lf 1012,5 hPa 0,0 l/m 0 min 0 min 0 W/m 10,5 km/h (2 Bft) 97,87 %
30.06.2016 23:18 18,2 C 17,8 C 16,1 C 90 % 0 lf 1012,5 hPa 0,0 l/m 0 min 0 min 0 W/m 14,6 km/h (3 Bft) 100,00 %
30.06.2016 23:20 18,2 C 17,8 C 16,1 C 90 % 0 lf 1012,5 hPa 0,0 l/m 0 min 0 min 0 W/m 14,6 km/h (3 Bft) 100,00 %
30.06.2016 23:22 18,2 C 17,8 C 16,1 C 90 % 0 lf 1012,5 hPa 0,0 l/m 0 min 0 min 0 W/m 10,5 km/h (2 Bft) 100,00 %
30.06.2016 23:24 18,2 C 17,8 C 16,1 C 90 % 0 lf 1012,5 hPa 0,0 l/m 0 min 0 min 0 W/m 8,4 km/h (2 Bft) 95,65 %
30.06.2016 23:26 18,2 C 17,2 C 16,1 C 90 % 0 lf 1012,6 hPa 0,0 l/m 0 min 0 min 0 W/m 12,6 km/h (3 Bft) 93,62 %
30.06.2016 23:28 18,1 C 17,2 C 16,1 C 90 % 0 lf 1012,6 hPa 0,0 l/m 0 min 0 min 0 W/m 16,7 km/h (3 Bft) 100,00 %
30.06.2016 23:30 18,1 C 17,2 C 16,1 C 90 % 0 lf 1012,6 hPa 0,0 l/m 0 min 0 min 0 W/m 12,6 km/h (3 Bft) 100,00 %
30.06.2016 23:32 18,1 C 17,2 C 16,1 C 90 % 0 lf 1012,6 hPa 0,0 l/m 0 min 0 min 0 W/m 10,5 km/h (2 Bft) 97,87 %
30.06.2016 23:34 18,1 C 17,2 C 16,1 C 91 % 0 lf 1012,6 hPa 0,0 l/m 0 min 0 min 0 W/m 14,6 km/h (3 Bft) 97,83 %
30.06.2016 23:36 18,0 C 17,2 C 16,1 C 91 % 0 lf 1012,7 hPa 0,0 l/m 0 min 0 min 0 W/m 12,6 km/h (3 Bft) 97,62 %
30.06.2016 23:38 18,0 C 17,2 C 15,6 C 91 % 0 lf 1012,8 hPa 0,0 l/m 0 min 0 min 0 W/m 8,4 km/h (2 Bft) 95,65 %
30.06.2016 23:40 18,0 C 17,2 C 15,6 C 91 % 0 lf 1012,7 hPa 0,0 l/m 0 min 0 min 0 W/m 10,5 km/h (2 Bft) 97,87 %
30.06.2016 23:42 18,0 C 17,2 C 15,6 C 91 % 0 lf 1012,7 hPa 0,0 l/m 0 min 0 min 0 W/m 8,4 km/h (2 Bft) 97,87 %
30.06.2016 23:44 17,9 C 17,2 C 15,6 C 91 % 0 lf 1012,7 hPa 0,0 l/m 0 min 0 min 0 W/m 14,6 km/h (3 Bft) 89,36 %
30.06.2016 23:46 17,9 C 17,2 C 15,6 C 91 % 0 lf 1012,7 hPa 0,0 l/m 0 min 0 min 0 W/m 10,5 km/h (2 Bft) 97,87 %
30.06.2016 23:48 17,9 C 17,2 C 15,6 C 91 % 0 lf 1012,8 hPa 0,0 l/m 0 min 0 min 0 W/m 10,5 km/h (2 Bft) 97,87 %
30.06.2016 23:50 17,9 C 17,2 C 15,6 C 91 % 0 lf 1012,7 hPa 0,0 l/m 0 min 0 min 0 W/m 10,5 km/h (2 Bft) 96,00 %
30.06.2016 23:52 17,8 C 17,2 C 15,6 C 91 % 0 lf 1012,7 hPa 0,0 l/m 0 min 0 min 0 W/m 8,4 km/h (2 Bft) 95,83 %
30.06.2016 23:54 17,8 C 17,2 C 15,6 C 91 % 0 lf 1012,7 hPa 0,0 l/m 0 min 0 min 0 W/m 14,6 km/h (3 Bft) 97,87 %
30.06.2016 23:56 17,8 C 17,2 C 15,6 C 91 % 0 lf 1012,7 hPa 0,0 l/m 0 min 0 min 0 W/m 14,6 km/h (3 Bft) 93,62 %
30.06.2016 23:58 17,7 C 17,2 C 15,6 C 91 % 0 lf 1012,7 hPa 0,0 l/m 0 min 0 min 0 W/m 12,6 km/h (3 Bft) 97,87 %
_ Min-Zeit 06:16 04:18 00:42 15:38 00:00 02:30 - - - - 20:08 21:38
Minimum _ 15,3 C 14,4 C 13,3 C 73 % 0 lf 1009,9 hPa - - - - 4,2 km/h (1 Bft) 86,96 %
_ Max-Zeit 17:02 13:34 17:00 06:50 04:16 23:38 00:40 10:28 00:00 17:46 15:32 01:04
Maximum _ 21,4 C 25,0 C 23,9 C 92 % 15 lf 1012,8 hPa 0,2 l/m 2 min 2 min 791 W/m 35,6 km/h
SW (5 Bft)
100,00 %
Durchschnitt _ 18,3 C 18,9 C 17,7 C 84 % 1 lf 1011,3 hPa #0,4 l/m #2:08 h #3:12 h 185 W/m 17,2 km/h (3 Bft) 96,12 %
© 2016 W. Hausmann